GEFSMA_prec_meanprecacc_090.txt.gz
Total_Precipitation_Accumulation
0.01 0.00 0.00 0.00 0.00 0.00 0.00 0.00 0.00 0.00 0.00 0.00 0.00 0.00 0.00 0.00 0.00 0.00 0.00 0.00 0.00 0.00 0.01 0.01 0.02 0.03 0.04 0.06 0.09 0.10 0.10 0.08 0.06 0.06 0.05 0.05 0.04 0.04 0.05 0.06 0.08 0.09 0.10
0.01 0.01 0.00 0.00 0.00 0.00 0.00 0.00 0.00 0.00 0.00 0.00 0.00 0.00 0.00 0.00 0.00 0.00 0.00 0.00 0.00 0.00 0.01 0.01 0.02 0.04 0.06 0.08 0.11 0.13 0.13 0.10 0.08 0.07 0.05 0.04 0.04 0.03 0.03 0.04 0.06 0.08 0.09
0.01 0.01 0.00 0.00 0.00 0.00 0.00 0.00 0.00 0.00 0.00 0.00 0.00 0.00 0.00 0.00 0.00 0.00 0.00 0.00 0.00 0.00 0.00 0.01 0.02 0.05 0.08 0.10 0.14 0.19 0.20 0.16 0.11 0.09 0.07 0.06 0.05 0.04 0.03 0.02 0.03 0.04 0.06
0.01 0.01 0.01 0.00 0.00 0.00 0.00 0.01 0.01 0.01 0.01 0.01 0.01 0.01 0.00 0.00 0.00 0.00 0.00 0.00 0.00 0.00 0.00 0.00 0.02 0.04 0.07 0.10 0.15 0.23 0.28 0.24 0.18 0.14 0.11 0.09 0.07 0.06 0.04 0.04 0.03 0.03 0.03
0.05 0.03 0.02 0.02 0.02 0.01 0.01 0.01 0.01 0.01 0.02 0.02 0.02 0.01 0.01 0.00 0.00 0.00 0.00 0.00 0.00 0.00 0.00 0.00 0.01 0.02 0.04 0.06 0.11 0.19 0.29 0.28 0.23 0.18 0.16 0.15 0.12 0.09 0.07 0.07 0.06 0.05 0.05
0.13 0.09 0.05 0.04 0.04 0.03 0.03 0.03 0.04 0.03 0.03 0.04 0.03 0.02 0.01 0.00 0.00 0.00 0.00 0.01 0.01 0.01 0.01 0.01 0.01 0.01 0.02 0.04 0.06 0.11 0.18 0.26 0.27 0.24 0.20 0.18 0.16 0.14 0.12 0.12 0.11 0.10 0.09
0.28 0.21 0.14 0.13 0.11 0.09 0.09 0.10 0.10 0.08 0.06 0.07 0.06 0.03 0.01 0.01 0.00 0.00 0.01 0.01 0.01 0.01 0.02 0.02 0.02 0.02 0.02 0.02 0.03 0.06 0.09 0.18 0.25 0.29 0.27 0.25 0.23 0.21 0.20 0.19 0.19 0.17 0.17
0.41 0.32 0.26 0.24 0.21 0.19 0.17 0.16 0.15 0.15 0.13 0.14 0.13 0.11 0.04 0.01 0.00 0.01 0.01 0.01 0.01 0.01 0.01 0.02 0.02 0.03 0.03 0.02 0.02 0.03 0.05 0.09 0.18 0.26 0.30 0.30 0.29 0.28 0.28 0.31 0.32 0.32 0.30
0.60 0.50 0.45 0.43 0.38 0.33 0.26 0.23 0.24 0.25 0.22 0.19 0.19 0.19 0.12 0.04 0.02 0.01 0.01 0.01 0.01 0.01 0.02 0.03 0.03 0.04 0.03 0.02 0.02 0.02 0.03 0.04 0.09 0.18 0.26 0.30 0.32 0.34 0.39 0.44 0.48 0.51 0.47
0.77 0.73 0.68 0.64 0.57 0.49 0.40 0.36 0.32 0.30 0.28 0.22 0.19 0.17 0.17 0.13 0.12 0.07 0.02 0.02 0.02 0.02 0.03 0.04 0.04 0.04 0.04 0.03 0.03 0.04 0.05 0.05 0.07 0.12 0.22 0.32 0.40 0.45 0.50 0.55 0.61 0.66 0.65
0.79 0.78 0.76 0.75 0.68 0.60 0.56 0.54 0.49 0.44 0.37 0.31 0.26 0.22 0.22 0.17 0.13 0.14 0.09 0.05 0.05 0.05 0.05 0.05 0.04 0.04 0.05 0.05 0.06 0.07 0.09 0.10 0.12 0.16 0.24 0.36 0.46 0.55 0.64 0.69 0.72 0.76 0.79
0.82 0.76 0.73 0.71 0.68 0.65 0.64 0.61 0.59 0.54 0.49 0.43 0.38 0.32 0.31 0.27 0.20 0.19 0.19 0.12 0.11 0.09 0.07 0.06 0.06 0.07 0.08 0.09 0.11 0.15 0.17 0.20 0.22 0.27 0.36 0.44 0.51 0.61 0.72 0.82 0.85 0.84 0.86
0.79 0.75 0.73 0.70 0.68 0.65 0.64 0.63 0.60 0.55 0.54 0.49 0.43 0.39 0.38 0.36 0.31 0.30 0.28 0.19 0.15 0.11 0.09 0.09 0.09 0.10 0.11 0.12 0.16 0.23 0.27 0.31 0.35 0.39 0.47 0.54 0.58 0.63 0.70 0.80 0.91 1.00 1.06
0.81 0.83 0.80 0.78 0.79 0.78 0.73 0.69 0.64 0.60 0.57 0.53 0.47 0.42 0.38 0.34 0.33 0.33 0.33 0.34 0.30 0.22 0.18 0.17 0.17 0.18 0.20 0.23 0.29 0.37 0.39 0.48 0.52 0.55 0.61 0.67 0.71 0.69 0.68 0.70 0.77 0.87 0.94
0.68 0.72 0.73 0.74 0.73 0.73 0.71 0.69 0.65 0.62 0.59 0.54 0.50 0.47 0.42 0.37 0.35 0.35 0.38 0.44 0.53 0.50 0.38 0.30 0.29 0.32 0.36 0.40 0.47 0.48 0.48 0.59 0.64 0.67 0.71 0.73 0.72 0.67 0.64 0.63 0.64 0.67 0.69
0.50 0.53 0.55 0.58 0.58 0.58 0.58 0.59 0.56 0.54 0.52 0.48 0.47 0.47 0.45 0.42 0.40 0.40 0.43 0.49 0.58 0.66 0.62 0.47 0.41 0.42 0.48 0.53 0.60 0.56 0.54 0.62 0.62 0.63 0.65 0.64 0.59 0.54 0.51 0.50 0.52 0.57 0.60
0.34 0.37 0.38 0.42 0.43 0.44 0.44 0.43 0.39 0.38 0.39 0.39 0.38 0.40 0.42 0.41 0.41 0.43 0.47 0.53 0.61 0.69 0.75 0.65 0.56 0.54 0.55 0.54 0.53 0.48 0.44 0.44 0.44 0.51 0.51 0.49 0.45 0.41 0.41 0.43 0.45 0.47 0.50
0.27 0.28 0.29 0.29 0.28 0.28 0.30 0.31 0.30 0.30 0.30 0.31 0.35 0.38 0.40 0.40 0.42 0.42 0.46 0.52 0.58 0.62 0.66 0.64 0.56 0.50 0.45 0.42 0.38 0.34 0.30 0.28 0.26 0.34 0.36 0.37 0.36 0.34 0.34 0.35 0.37 0.39 0.43
0.20 0.21 0.22 0.21 0.21 0.21 0.22 0.23 0.25 0.26 0.27 0.27 0.28 0.30 0.32 0.34 0.36 0.37 0.39 0.43 0.45 0.47 0.47 0.46 0.41 0.36 0.32 0.30 0.27 0.22 0.18 0.16 0.15 0.18 0.20 0.20 0.21 0.22 0.24 0.25 0.26 0.28 0.28
0.15 0.14 0.13 0.13 0.13 0.13 0.14 0.16 0.19 0.21 0.22 0.22 0.22 0.23 0.25 0.28 0.33 0.36 0.38 0.39 0.38 0.37 0.35 0.34 0.33 0.29 0.24 0.20 0.17 0.14 0.11 0.10 0.09 0.07 0.09 0.08 0.09 0.09 0.09 0.10 0.10 0.10 0.11
0.09 0.08 0.09 0.10 0.11 0.11 0.10 0.11 0.13 0.17 0.21 0.24 0.28 0.31 0.35 0.41 0.42 0.38 0.34 0.31 0.28 0.27 0.29 0.30 0.27 0.21 0.16 0.13 0.11 0.09 0.08 0.07 0.05 0.03 0.03 0.02 0.02 0.02 0.02 0.02 0.03 0.03 0.04
0.09 0.08 0.09 0.10 0.14 0.16 0.24 0.21 0.17 0.18 0.24 0.29 0.33 0.36 0.38 0.40 0.37 0.33 0.29 0.24 0.23 0.26 0.27 0.25 0.19 0.13 0.08 0.06 0.06 0.06 0.07 0.08 0.05 0.01 0.01 0.01 0.00 0.00 0.00 0.00 0.01 0.02 0.03
0.20 0.20 0.21 0.22 0.24 0.32 0.41 0.36 0.34 0.28 0.29 0.32 0.32 0.30 0.28 0.25 0.22 0.18 0.17 0.18 0.20 0.18 0.15 0.12 0.08 0.04 0.03 0.03 0.06 0.09 0.08 0.09 0.06 0.01 0.01 0.01 0.00 0.00 0.00 0.00 0.00 0.01 0.02
0.40 0.42 0.44 0.45 0.46 0.50 0.49 0.40 0.35 0.30 0.30 0.29 0.26 0.21 0.17 0.13 0.11 0.10 0.12 0.15 0.08 0.04 0.03 0.02 0.02 0.02 0.02 0.03 0.06 0.12 0.11 0.08 0.03 0.00 0.00 0.01 0.00 0.00 0.00 0.00 0.00 0.00 0.01
0.69 0.66 0.63 0.57 0.51 0.49 0.44 0.35 0.28 0.24 0.22 0.18 0.14 0.11 0.08 0.06 0.06 0.10 0.11 0.07 0.03 0.01 0.00 0.01 0.02 0.02 0.02 0.03 0.03 0.05 0.08 0.10 0.06 0.00 0.00 0.00 0.00 0.00 0.00 0.00 0.00 0.00 0.00
0.61 0.59 0.57 0.53 0.45 0.37 0.29 0.22 0.18 0.14 0.11 0.08 0.05 0.04 0.04 0.04 0.06 0.09 0.06 0.04 0.02 0.01 0.02 0.01 0.00 0.00 0.00 0.00 0.00 0.02 0.09 0.24 0.19 0.09 0.00 0.03 0.05 0.07 0.13 0.01 0.00 0.00 0.00

GEFSMA_prec_meanprecacc_096.txt.gz
Total_Precipitation_Accumulation
0.05 0.03 0.03 0.01 0.00 0.00 0.00 0.00 0.00 0.00 0.00 0.00 0.00 0.00 0.00 0.00 0.00 0.00 0.00 0.00 0.00 0.00 0.01 0.02 0.02 0.03 0.05 0.07 0.09 0.11 0.11 0.08 0.06 0.06 0.06 0.05 0.05 0.05 0.05 0.07 0.09 0.09 0.10
0.06 0.04 0.03 0.02 0.01 0.00 0.00 0.00 0.00 0.00 0.00 0.00 0.00 0.00 0.00 0.00 0.00 0.00 0.00 0.00 0.00 0.00 0.01 0.01 0.02 0.05 0.07 0.09 0.12 0.14 0.14 0.11 0.09 0.08 0.06 0.05 0.04 0.04 0.04 0.05 0.07 0.09 0.10
0.07 0.05 0.03 0.03 0.02 0.00 0.00 0.00 0.00 0.00 0.00 0.00 0.00 0.00 0.00 0.00 0.00 0.00 0.00 0.00 0.00 0.00 0.00 0.01 0.03 0.06 0.08 0.10 0.15 0.20 0.21 0.16 0.12 0.09 0.08 0.07 0.06 0.05 0.03 0.03 0.03 0.05 0.07
0.09 0.07 0.04 0.03 0.02 0.01 0.01 0.01 0.01 0.01 0.01 0.01 0.01 0.01 0.00 0.00 0.00 0.00 0.00 0.00 0.00 0.00 0.00 0.00 0.02 0.04 0.08 0.11 0.16 0.23 0.29 0.24 0.18 0.15 0.12 0.10 0.08 0.06 0.05 0.04 0.04 0.03 0.04
0.11 0.08 0.05 0.04 0.04 0.03 0.02 0.02 0.01 0.01 0.02 0.02 0.02 0.01 0.01 0.00 0.00 0.00 0.00 0.00 0.00 0.00 0.00 0.00 0.01 0.02 0.04 0.07 0.12 0.20 0.29 0.28 0.23 0.19 0.17 0.15 0.13 0.10 0.08 0.08 0.07 0.06 0.06
0.22 0.15 0.10 0.07 0.07 0.06 0.05 0.04 0.04 0.03 0.04 0.04 0.04 0.02 0.01 0.01 0.00 0.00 0.00 0.01 0.01 0.01 0.01 0.01 0.02 0.01 0.02 0.04 0.07 0.12 0.19 0.27 0.28 0.24 0.21 0.18 0.17 0.15 0.13 0.12 0.12 0.11 0.11
0.42 0.30 0.19 0.17 0.14 0.12 0.12 0.13 0.12 0.09 0.08 0.09 0.08 0.04 0.02 0.01 0.01 0.01 0.01 0.01 0.01 0.02 0.02 0.02 0.02 0.02 0.02 0.02 0.04 0.06 0.10 0.19 0.26 0.29 0.28 0.26 0.23 0.21 0.20 0.20 0.20 0.18 0.18
0.59 0.46 0.35 0.29 0.25 0.23 0.21 0.21 0.21 0.19 0.17 0.18 0.17 0.14 0.06 0.02 0.01 0.01 0.01 0.01 0.02 0.02 0.02 0.02 0.02 0.03 0.03 0.02 0.02 0.03 0.05 0.10 0.18 0.26 0.30 0.31 0.29 0.28 0.29 0.32 0.34 0.33 0.31
0.82 0.69 0.58 0.50 0.43 0.38 0.31 0.29 0.29 0.29 0.26 0.24 0.24 0.23 0.15 0.06 0.03 0.01 0.01 0.01 0.02 0.02 0.02 0.03 0.03 0.04 0.03 0.02 0.02 0.02 0.03 0.04 0.09 0.19 0.27 0.31 0.33 0.35 0.40 0.45 0.50 0.53 0.48
1.03 0.94 0.85 0.77 0.66 0.57 0.47 0.42 0.38 0.36 0.34 0.30 0.27 0.23 0.21 0.16 0.14 0.08 0.03 0.03 0.03 0.02 0.04 0.04 0.04 0.04 0.04 0.03 0.03 0.04 0.05 0.05 0.07 0.13 0.24 0.34 0.42 0.47 0.52 0.57 0.62 0.67 0.67
1.04 1.00 0.96 0.91 0.81 0.72 0.66 0.62 0.56 0.51 0.43 0.38 0.33 0.29 0.28 0.21 0.16 0.16 0.10 0.05 0.05 0.05 0.05 0.05 0.04 0.04 0.05 0.05 0.06 0.07 0.09 0.10 0.13 0.18 0.27 0.39 0.48 0.56 0.64 0.69 0.73 0.77 0.80
1.05 0.97 0.95 0.91 0.85 0.80 0.78 0.75 0.72 0.66 0.58 0.51 0.45 0.38 0.36 0.32 0.25 0.23 0.21 0.13 0.11 0.09 0.08 0.06 0.06 0.07 0.08 0.09 0.11 0.15 0.18 0.20 0.23 0.29 0.38 0.46 0.52 0.61 0.73 0.83 0.85 0.85 0.87
0.99 0.94 0.92 0.91 0.88 0.83 0.81 0.79 0.75 0.69 0.66 0.60 0.52 0.47 0.45 0.41 0.36 0.34 0.32 0.22 0.16 0.11 0.10 0.09 0.09 0.10 0.11 0.12 0.16 0.23 0.27 0.32 0.35 0.40 0.48 0.55 0.59 0.63 0.70 0.80 0.92 1.01 1.07
0.99 1.01 0.99 0.96 0.97 0.95 0.89 0.85 0.81 0.77 0.73 0.65 0.56 0.49 0.44 0.39 0.37 0.37 0.37 0.37 0.33 0.24 0.19 0.17 0.17 0.19 0.21 0.23 0.29 0.37 0.39 0.48 0.52 0.55 0.61 0.67 0.71 0.69 0.68 0.71 0.78 0.87 0.95
0.90 0.92 0.93 0.93 0.91 0.88 0.86 0.84 0.79 0.75 0.73 0.68 0.62 0.56 0.48 0.42 0.40 0.40 0.42 0.47 0.56 0.52 0.40 0.30 0.30 0.32 0.36 0.40 0.47 0.48 0.48 0.59 0.64 0.67 0.71 0.73 0.72 0.68 0.64 0.63 0.65 0.67 0.69
0.74 0.78 0.78 0.79 0.79 0.77 0.75 0.74 0.71 0.67 0.64 0.60 0.58 0.57 0.53 0.48 0.46 0.45 0.48 0.53 0.61 0.69 0.65 0.48 0.41 0.43 0.48 0.53 0.60 0.56 0.54 0.62 0.62 0.63 0.65 0.64 0.59 0.54 0.51 0.50 0.52 0.57 0.60
0.55 0.59 0.61 0.62 0.63 0.64 0.64 0.63 0.57 0.54 0.53 0.52 0.50 0.50 0.51 0.48 0.48 0.48 0.52 0.58 0.65 0.73 0.78 0.67 0.58 0.55 0.56 0.54 0.53 0.48 0.44 0.44 0.44 0.51 0.51 0.49 0.45 0.41 0.41 0.43 0.45 0.47 0.50
0.45 0.46 0.47 0.48 0.46 0.46 0.48 0.49 0.50 0.49 0.46 0.45 0.46 0.48 0.49 0.48 0.49 0.49 0.51 0.56 0.61 0.65 0.68 0.66 0.57 0.51 0.46 0.42 0.38 0.34 0.30 0.28 0.27 0.34 0.37 0.37 0.36 0.34 0.34 0.35 0.37 0.39 0.44
0.36 0.36 0.34 0.34 0.36 0.36 0.37 0.39 0.39 0.41 0.42 0.41 0.41 0.41 0.42 0.42 0.43 0.44 0.45 0.48 0.49 0.49 0.49 0.47 0.42 0.37 0.33 0.30 0.27 0.22 0.18 0.16 0.15 0.18 0.20 0.20 0.21 0.22 0.24 0.25 0.27 0.28 0.29
0.27 0.26 0.26 0.24 0.25 0.26 0.28 0.31 0.33 0.34 0.35 0.35 0.35 0.36 0.37 0.38 0.40 0.43 0.44 0.43 0.42 0.39 0.37 0.36 0.35 0.29 0.25 0.20 0.17 0.14 0.11 0.10 0.09 0.07 0.09 0.08 0.09 0.09 0.09 0.10 0.10 0.10 0.11
0.16 0.17 0.19 0.21 0.21 0.21 0.21 0.23 0.26 0.30 0.32 0.34 0.37 0.41 0.44 0.49 0.49 0.44 0.38 0.34 0.31 0.29 0.30 0.31 0.27 0.21 0.16 0.13 0.11 0.09 0.08 0.07 0.05 0.03 0.03 0.02 0.02 0.02 0.02 0.02 0.03 0.03 0.05
0.13 0.14 0.16 0.18 0.22 0.25 0.35 0.32 0.27 0.27 0.32 0.36 0.39 0.41 0.43 0.46 0.43 0.40 0.34 0.28 0.26 0.28 0.29 0.26 0.20 0.13 0.09 0.07 0.06 0.07 0.07 0.08 0.05 0.01 0.01 0.01 0.00 0.00 0.00 0.00 0.01 0.02 0.04
0.23 0.24 0.25 0.27 0.31 0.40 0.50 0.46 0.45 0.37 0.36 0.37 0.37 0.35 0.31 0.28 0.26 0.22 0.22 0.23 0.23 0.21 0.17 0.13 0.08 0.05 0.04 0.04 0.07 0.10 0.09 0.10 0.07 0.01 0.02 0.01 0.00 0.00 0.00 0.00 0.00 0.01 0.02
0.43 0.46 0.49 0.50 0.51 0.57 0.59 0.50 0.44 0.38 0.38 0.36 0.32 0.27 0.21 0.16 0.13 0.13 0.15 0.18 0.11 0.07 0.04 0.03 0.03 0.02 0.03 0.04 0.07 0.13 0.12 0.09 0.03 0.00 0.00 0.01 0.00 0.00 0.00 0.00 0.00 0.00 0.01
0.72 0.70 0.67 0.61 0.55 0.53 0.49 0.42 0.36 0.31 0.29 0.26 0.21 0.17 0.14 0.10 0.10 0.14 0.14 0.10 0.06 0.03 0.03 0.03 0.04 0.04 0.04 0.04 0.04 0.06 0.09 0.10 0.06 0.00 0.00 0.00 0.00 0.00 0.00 0.00 0.00 0.00 0.00
0.65 0.63 0.61 0.57 0.49 0.40 0.33 0.26 0.22 0.18 0.15 0.13 0.11 0.09 0.09 0.08 0.11 0.14 0.10 0.07 0.05 0.04 0.04 0.03 0.02 0.01 0.01 0.01 0.01 0.02 0.09 0.24 0.20 0.09 0.00 0.03 0.05 0.07 0.13 0.01 0.00 0.00 0.00

GEFSMA_prec_meanprecacc_102.txt.gz
Total_Precipitation_Accumulation
0.11 0.08 0.06 0.04 0.03 0.02 0.01 0.00 0.00 0.00 0.00 0.00 0.00 0.00 0.00 0.00 0.00 0.00 0.00 0.00 0.00 0.00 0.01 0.02 0.03 0.04 0.06 0.08 0.10 0.12 0.12 0.10 0.08 0.07 0.07 0.06 0.06 0.05 0.06 0.08 0.09 0.10 0.11
0.17 0.13 0.08 0.06 0.05 0.04 0.02 0.01 0.00 0.00 0.00 0.00 0.00 0.00 0.00 0.00 0.00 0.00 0.00 0.00 0.00 0.00 0.01 0.01 0.03 0.05 0.08 0.10 0.12 0.14 0.15 0.12 0.10 0.08 0.06 0.05 0.05 0.04 0.04 0.05 0.07 0.09 0.11
0.19 0.17 0.12 0.08 0.07 0.06 0.04 0.03 0.01 0.00 0.00 0.00 0.00 0.00 0.00 0.00 0.00 0.00 0.00 0.00 0.00 0.00 0.00 0.01 0.03 0.06 0.09 0.11 0.16 0.20 0.22 0.17 0.13 0.10 0.08 0.07 0.06 0.05 0.04 0.04 0.04 0.05 0.07
0.25 0.21 0.17 0.11 0.08 0.07 0.06 0.04 0.03 0.02 0.01 0.01 0.01 0.01 0.00 0.00 0.00 0.00 0.00 0.00 0.00 0.00 0.00 0.00 0.02 0.04 0.08 0.12 0.17 0.25 0.30 0.25 0.19 0.15 0.13 0.11 0.08 0.07 0.05 0.05 0.04 0.04 0.04
0.28 0.26 0.23 0.19 0.14 0.09 0.08 0.06 0.05 0.03 0.03 0.02 0.02 0.01 0.01 0.00 0.00 0.00 0.00 0.00 0.00 0.00 0.00 0.00 0.01 0.02 0.04 0.08 0.13 0.22 0.30 0.29 0.23 0.19 0.17 0.16 0.13 0.10 0.09 0.08 0.07 0.06 0.06
0.38 0.31 0.26 0.24 0.22 0.17 0.11 0.08 0.07 0.07 0.05 0.05 0.04 0.02 0.01 0.01 0.01 0.00 0.01 0.01 0.01 0.01 0.01 0.01 0.02 0.02 0.02 0.04 0.08 0.13 0.21 0.27 0.28 0.24 0.21 0.19 0.17 0.15 0.13 0.13 0.12 0.12 0.12
0.60 0.47 0.32 0.29 0.27 0.24 0.21 0.18 0.16 0.13 0.11 0.11 0.09 0.04 0.02 0.02 0.01 0.01 0.01 0.01 0.01 0.02 0.02 0.02 0.02 0.02 0.02 0.03 0.04 0.07 0.11 0.19 0.26 0.29 0.28 0.26 0.23 0.21 0.21 0.21 0.21 0.19 0.19
0.75 0.65 0.52 0.41 0.35 0.32 0.31 0.28 0.25 0.23 0.20 0.21 0.19 0.17 0.08 0.03 0.01 0.01 0.01 0.02 0.02 0.02 0.02 0.03 0.03 0.03 0.03 0.03 0.02 0.03 0.06 0.10 0.19 0.27 0.31 0.31 0.30 0.29 0.30 0.33 0.35 0.35 0.32
0.96 0.85 0.76 0.68 0.56 0.47 0.40 0.37 0.35 0.33 0.29 0.27 0.27 0.27 0.18 0.08 0.04 0.02 0.01 0.02 0.02 0.03 0.03 0.04 0.04 0.04 0.04 0.03 0.02 0.02 0.03 0.05 0.10 0.19 0.28 0.33 0.35 0.37 0.41 0.46 0.51 0.54 0.49
1.17 1.08 1.00 0.93 0.81 0.68 0.55 0.50 0.47 0.43 0.39 0.34 0.31 0.26 0.24 0.18 0.16 0.09 0.03 0.04 0.04 0.04 0.05 0.05 0.05 0.05 0.04 0.03 0.03 0.04 0.05 0.05 0.08 0.14 0.25 0.36 0.44 0.48 0.53 0.58 0.63 0.68 0.67
1.24 1.18 1.12 1.08 0.97 0.85 0.76 0.70 0.65 0.59 0.50 0.44 0.38 0.33 0.33 0.26 0.20 0.20 0.12 0.07 0.07 0.07 0.06 0.05 0.05 0.05 0.05 0.05 0.06 0.07 0.09 0.10 0.13 0.19 0.28 0.40 0.49 0.57 0.66 0.70 0.73 0.78 0.81
1.33 1.22 1.14 1.09 1.02 0.97 0.92 0.86 0.83 0.76 0.68 0.60 0.53 0.46 0.43 0.38 0.30 0.29 0.27 0.17 0.14 0.11 0.09 0.07 0.07 0.07 0.09 0.10 0.11 0.16 0.18 0.20 0.23 0.29 0.39 0.47 0.53 0.62 0.74 0.83 0.86 0.86 0.88
1.21 1.18 1.14 1.09 1.05 1.00 0.97 0.94 0.90 0.84 0.79 0.72 0.62 0.56 0.54 0.50 0.44 0.41 0.39 0.28 0.20 0.14 0.12 0.10 0.10 0.11 0.12 0.13 0.16 0.24 0.27 0.32 0.35 0.40 0.48 0.55 0.59 0.63 0.70 0.80 0.92 1.01 1.07
1.17 1.20 1.18 1.17 1.18 1.16 1.09 1.04 0.99 0.94 0.90 0.81 0.71 0.63 0.57 0.52 0.49 0.48 0.47 0.46 0.40 0.28 0.21 0.19 0.18 0.20 0.21 0.24 0.30 0.38 0.39 0.49 0.52 0.56 0.61 0.67 0.71 0.69 0.68 0.71 0.78 0.88 0.95
1.07 1.10 1.12 1.12 1.10 1.10 1.08 1.06 1.01 0.95 0.92 0.86 0.79 0.73 0.63 0.53 0.49 0.48 0.49 0.54 0.62 0.57 0.43 0.32 0.31 0.33 0.37 0.41 0.48 0.49 0.48 0.60 0.65 0.67 0.71 0.73 0.72 0.68 0.64 0.63 0.65 0.67 0.70
0.91 0.95 0.96 0.97 0.98 0.96 0.95 0.95 0.91 0.87 0.85 0.80 0.76 0.74 0.70 0.62 0.57 0.54 0.56 0.61 0.68 0.75 0.69 0.51 0.43 0.45 0.50 0.54 0.62 0.58 0.55 0.63 0.62 0.63 0.65 0.64 0.59 0.54 0.51 0.50 0.52 0.57 0.60
0.77 0.78 0.79 0.80 0.81 0.84 0.85 0.85 0.79 0.75 0.76 0.74 0.71 0.69 0.69 0.65 0.63 0.61 0.63 0.67 0.74 0.80 0.84 0.72 0.61 0.58 0.58 0.56 0.55 0.49 0.45 0.45 0.44 0.51 0.52 0.50 0.45 0.41 0.41 0.43 0.45 0.47 0.50
0.68 0.69 0.70 0.70 0.65 0.64 0.68 0.70 0.71 0.68 0.65 0.65 0.66 0.69 0.70 0.68 0.68 0.65 0.66 0.68 0.72 0.74 0.77 0.74 0.63 0.55 0.50 0.45 0.41 0.36 0.32 0.29 0.27 0.35 0.37 0.37 0.36 0.34 0.34 0.35 0.37 0.39 0.44
0.59 0.61 0.60 0.62 0.62 0.59 0.58 0.59 0.59 0.60 0.60 0.59 0.59 0.60 0.60 0.61 0.63 0.61 0.61 0.62 0.62 0.61 0.60 0.56 0.50 0.43 0.38 0.34 0.30 0.25 0.20 0.17 0.16 0.18 0.21 0.21 0.22 0.22 0.24 0.25 0.27 0.28 0.29
0.46 0.49 0.50 0.50 0.51 0.53 0.53 0.53 0.56 0.56 0.56 0.55 0.55 0.56 0.57 0.58 0.60 0.61 0.62 0.61 0.59 0.56 0.53 0.49 0.45 0.38 0.31 0.26 0.22 0.17 0.14 0.11 0.09 0.08 0.09 0.09 0.09 0.09 0.09 0.10 0.10 0.10 0.11
0.31 0.33 0.37 0.41 0.44 0.44 0.46 0.48 0.50 0.53 0.54 0.55 0.58 0.62 0.65 0.71 0.71 0.66 0.59 0.54 0.50 0.49 0.48 0.46 0.39 0.31 0.24 0.19 0.15 0.12 0.11 0.09 0.07 0.04 0.04 0.03 0.03 0.02 0.02 0.02 0.03 0.03 0.05
0.24 0.27 0.31 0.33 0.38 0.44 0.55 0.53 0.48 0.49 0.55 0.58 0.59 0.60 0.62 0.67 0.64 0.62 0.56 0.50 0.47 0.48 0.46 0.40 0.31 0.22 0.14 0.11 0.10 0.10 0.11 0.11 0.07 0.02 0.02 0.01 0.01 0.01 0.00 0.00 0.01 0.02 0.04
0.29 0.31 0.33 0.36 0.40 0.52 0.65 0.62 0.63 0.55 0.55 0.57 0.56 0.52 0.46 0.42 0.42 0.37 0.40 0.43 0.43 0.40 0.34 0.27 0.20 0.14 0.11 0.10 0.12 0.14 0.12 0.12 0.08 0.02 0.03 0.02 0.00 0.00 0.00 0.00 0.00 0.01 0.02
0.45 0.49 0.53 0.56 0.58 0.65 0.71 0.63 0.58 0.53 0.54 0.53 0.48 0.43 0.36 0.29 0.24 0.23 0.27 0.31 0.24 0.19 0.17 0.15 0.12 0.11 0.11 0.11 0.13 0.17 0.16 0.12 0.05 0.02 0.01 0.02 0.00 0.00 0.00 0.00 0.00 0.00 0.01
0.75 0.73 0.70 0.65 0.61 0.61 0.59 0.54 0.49 0.44 0.44 0.42 0.37 0.33 0.30 0.25 0.26 0.27 0.23 0.19 0.15 0.13 0.13 0.13 0.14 0.14 0.14 0.12 0.10 0.11 0.13 0.14 0.09 0.03 0.02 0.01 0.00 0.00 0.00 0.00 0.00 0.00 0.00
0.67 0.66 0.64 0.61 0.54 0.47 0.41 0.35 0.33 0.30 0.29 0.27 0.25 0.24 0.25 0.24 0.28 0.29 0.21 0.16 0.13 0.10 0.11 0.11 0.10 0.09 0.09 0.08 0.08 0.08 0.14 0.28 0.22 0.11 0.02 0.05 0.06 0.08 0.13 0.02 0.00 0.00 0.00

GEFSMA_prec_meanprecacc_108.txt.gz
Total_Precipitation_Accumulation
0.19 0.15 0.13 0.12 0.11 0.09 0.06 0.04 0.03 0.01 0.01 0.00 0.00 0.00 0.00 0.00 0.00 0.00 0.00 0.00 0.00 0.01 0.02 0.02 0.03 0.04 0.07 0.08 0.10 0.13 0.13 0.10 0.08 0.07 0.07 0.07 0.06 0.05 0.06 0.08 0.09 0.10 0.11
0.25 0.21 0.17 0.14 0.12 0.10 0.08 0.05 0.03 0.02 0.01 0.00 0.00 0.00 0.00 0.00 0.00 0.00 0.00 0.00 0.00 0.00 0.01 0.02 0.03 0.06 0.09 0.11 0.13 0.15 0.15 0.12 0.10 0.09 0.06 0.05 0.05 0.04 0.04 0.05 0.07 0.09 0.11
0.29 0.27 0.23 0.19 0.15 0.12 0.10 0.08 0.07 0.05 0.03 0.02 0.01 0.00 0.00 0.00 0.00 0.00 0.00 0.00 0.00 0.00 0.00 0.01 0.03 0.06 0.09 0.12 0.17 0.20 0.22 0.17 0.13 0.10 0.09 0.08 0.07 0.05 0.04 0.04 0.04 0.05 0.07
0.37 0.34 0.29 0.22 0.17 0.16 0.13 0.09 0.07 0.06 0.05 0.03 0.02 0.02 0.01 0.00 0.00 0.00 0.00 0.00 0.00 0.00 0.00 0.00 0.02 0.05 0.09 0.13 0.18 0.25 0.30 0.26 0.19 0.15 0.13 0.11 0.09 0.07 0.06 0.05 0.04 0.04 0.04
0.41 0.39 0.34 0.29 0.25 0.19 0.16 0.13 0.09 0.06 0.06 0.05 0.03 0.02 0.01 0.00 0.00 0.00 0.00 0.00 0.00 0.00 0.00 0.00 0.01 0.02 0.05 0.09 0.14 0.24 0.31 0.30 0.23 0.19 0.18 0.16 0.13 0.10 0.09 0.09 0.08 0.07 0.06
0.50 0.44 0.39 0.36 0.35 0.30 0.21 0.16 0.14 0.10 0.08 0.07 0.06 0.03 0.02 0.01 0.01 0.00 0.01 0.01 0.01 0.01 0.01 0.01 0.02 0.02 0.02 0.05 0.09 0.15 0.22 0.28 0.28 0.24 0.21 0.19 0.17 0.15 0.14 0.14 0.13 0.12 0.13
0.70 0.58 0.46 0.44 0.42 0.38 0.33 0.29 0.26 0.22 0.16 0.14 0.11 0.06 0.03 0.02 0.01 0.01 0.01 0.01 0.01 0.02 0.02 0.02 0.02 0.02 0.02 0.03 0.05 0.08 0.13 0.21 0.27 0.29 0.28 0.26 0.24 0.22 0.21 0.22 0.22 0.20 0.20
0.87 0.77 0.65 0.56 0.50 0.49 0.46 0.42 0.38 0.35 0.30 0.28 0.24 0.21 0.11 0.04 0.02 0.01 0.02 0.02 0.02 0.03 0.02 0.03 0.03 0.03 0.03 0.03 0.03 0.04 0.06 0.11 0.19 0.27 0.31 0.31 0.30 0.29 0.31 0.34 0.36 0.35 0.33
1.09 0.97 0.89 0.83 0.72 0.63 0.55 0.51 0.49 0.46 0.40 0.36 0.33 0.34 0.23 0.10 0.04 0.02 0.02 0.02 0.03 0.03 0.03 0.04 0.05 0.05 0.04 0.03 0.03 0.03 0.03 0.05 0.10 0.20 0.29 0.33 0.35 0.38 0.42 0.47 0.52 0.54 0.50
1.29 1.21 1.13 1.08 0.99 0.86 0.70 0.63 0.59 0.55 0.52 0.46 0.39 0.32 0.29 0.21 0.18 0.10 0.04 0.04 0.04 0.04 0.05 0.06 0.06 0.06 0.05 0.05 0.04 0.05 0.05 0.06 0.08 0.15 0.26 0.37 0.45 0.49 0.54 0.58 0.64 0.69 0.68
1.38 1.34 1.27 1.22 1.13 1.03 0.94 0.89 0.81 0.73 0.63 0.56 0.49 0.41 0.39 0.31 0.24 0.24 0.15 0.08 0.08 0.08 0.07 0.06 0.06 0.06 0.07 0.06 0.07 0.08 0.10 0.11 0.14 0.19 0.30 0.41 0.50 0.58 0.66 0.71 0.74 0.79 0.82
1.48 1.39 1.31 1.25 1.18 1.12 1.08 1.03 1.01 0.93 0.84 0.74 0.66 0.57 0.52 0.45 0.35 0.34 0.32 0.21 0.17 0.13 0.11 0.09 0.08 0.09 0.10 0.11 0.12 0.17 0.19 0.21 0.24 0.30 0.41 0.49 0.54 0.63 0.75 0.84 0.87 0.86 0.88
1.32 1.31 1.30 1.26 1.20 1.14 1.11 1.10 1.09 1.03 0.96 0.87 0.76 0.69 0.65 0.58 0.51 0.48 0.46 0.33 0.25 0.17 0.14 0.13 0.12 0.13 0.15 0.16 0.18 0.26 0.29 0.33 0.36 0.41 0.50 0.57 0.61 0.64 0.71 0.81 0.93 1.02 1.08
1.25 1.28 1.28 1.28 1.29 1.28 1.21 1.17 1.14 1.10 1.07 0.97 0.85 0.76 0.69 0.62 0.59 0.57 0.55 0.54 0.47 0.33 0.25 0.21 0.20 0.21 0.23 0.26 0.32 0.40 0.41 0.50 0.53 0.57 0.62 0.69 0.72 0.70 0.69 0.71 0.79 0.88 0.95
1.15 1.17 1.18 1.19 1.19 1.20 1.19 1.17 1.14 1.09 1.07 1.02 0.94 0.86 0.76 0.65 0.61 0.59 0.59 0.63 0.70 0.64 0.48 0.35 0.33 0.35 0.38 0.43 0.51 0.51 0.50 0.62 0.67 0.69 0.72 0.74 0.73 0.68 0.64 0.64 0.65 0.67 0.70
0.97 1.02 1.03 1.03 1.04 1.04 1.04 1.06 1.03 0.99 0.98 0.94 0.92 0.91 0.86 0.76 0.71 0.67 0.68 0.71 0.77 0.84 0.75 0.53 0.45 0.47 0.52 0.57 0.66 0.61 0.57 0.66 0.65 0.66 0.67 0.65 0.60 0.54 0.51 0.50 0.53 0.57 0.60
0.85 0.86 0.87 0.88 0.88 0.91 0.93 0.94 0.90 0.86 0.87 0.86 0.83 0.85 0.86 0.82 0.81 0.78 0.79 0.82 0.86 0.91 0.94 0.77 0.63 0.60 0.61 0.60 0.59 0.53 0.49 0.48 0.47 0.55 0.54 0.51 0.46 0.42 0.41 0.43 0.45 0.47 0.50
0.77 0.78 0.79 0.80 0.75 0.73 0.76 0.79 0.81 0.79 0.77 0.77 0.78 0.81 0.82 0.83 0.86 0.85 0.86 0.88 0.89 0.89 0.90 0.83 0.69 0.60 0.54 0.50 0.46 0.42 0.37 0.34 0.31 0.40 0.41 0.40 0.39 0.36 0.35 0.36 0.37 0.40 0.44
0.66 0.68 0.69 0.72 0.73 0.72 0.72 0.71 0.70 0.70 0.70 0.70 0.70 0.72 0.72 0.74 0.77 0.77 0.79 0.82 0.81 0.79 0.77 0.71 0.60 0.50 0.44 0.40 0.38 0.34 0.28 0.25 0.22 0.24 0.26 0.25 0.25 0.25 0.25 0.26 0.27 0.28 0.29
0.52 0.56 0.58 0.60 0.62 0.67 0.70 0.72 0.72 0.70 0.68 0.67 0.67 0.69 0.70 0.72 0.74 0.77 0.78 0.78 0.78 0.76 0.73 0.69 0.61 0.50 0.40 0.35 0.32 0.29 0.25 0.21 0.18 0.16 0.18 0.16 0.15 0.14 0.13 0.12 0.11 0.11 0.11
0.39 0.42 0.46 0.53 0.56 0.58 0.62 0.65 0.69 0.71 0.71 0.71 0.73 0.77 0.79 0.85 0.85 0.80 0.74 0.69 0.67 0.68 0.67 0.65 0.56 0.46 0.37 0.30 0.26 0.22 0.20 0.19 0.16 0.13 0.12 0.10 0.08 0.07 0.06 0.06 0.05 0.04 0.06
0.31 0.34 0.38 0.42 0.48 0.54 0.66 0.64 0.61 0.63 0.71 0.74 0.75 0.75 0.76 0.83 0.79 0.76 0.70 0.64 0.62 0.65 0.64 0.57 0.46 0.35 0.25 0.19 0.18 0.20 0.22 0.22 0.19 0.10 0.09 0.08 0.07 0.06 0.04 0.03 0.03 0.04 0.05
0.32 0.35 0.37 0.41 0.46 0.58 0.72 0.69 0.71 0.64 0.67 0.71 0.72 0.69 0.64 0.60 0.60 0.54 0.57 0.60 0.59 0.55 0.49 0.42 0.35 0.27 0.22 0.19 0.23 0.27 0.24 0.23 0.17 0.09 0.10 0.10 0.07 0.06 0.04 0.03 0.03 0.03 0.03
0.47 0.51 0.56 0.58 0.62 0.70 0.75 0.67 0.64 0.59 0.62 0.63 0.60 0.56 0.52 0.46 0.42 0.41 0.44 0.49 0.40 0.34 0.31 0.27 0.23 0.21 0.21 0.22 0.26 0.30 0.29 0.26 0.18 0.13 0.11 0.11 0.08 0.06 0.05 0.04 0.04 0.03 0.03
0.76 0.74 0.71 0.67 0.63 0.63 0.63 0.57 0.52 0.48 0.49 0.48 0.45 0.43 0.41 0.38 0.41 0.46 0.41 0.36 0.31 0.28 0.29 0.30 0.29 0.28 0.28 0.28 0.26 0.28 0.30 0.32 0.24 0.14 0.11 0.09 0.07 0.06 0.05 0.04 0.03 0.03 0.02
0.69 0.67 0.66 0.63 0.56 0.49 0.45 0.40 0.37 0.34 0.33 0.31 0.30 0.30 0.34 0.34 0.40 0.44 0.37 0.32 0.28 0.24 0.24 0.26 0.26 0.24 0.22 0.22 0.23 0.21 0.27 0.41 0.34 0.21 0.09 0.10 0.11 0.13 0.19 0.05 0.03 0.02 0.02

GEFSMA_prec_meanprecacc_114.txt.gz
Total_Precipitation_Accumulation
0.28 0.25 0.24 0.24 0.23 0.20 0.16 0.12 0.08 0.06 0.03 0.02 0.01 0.01 0.00 0.00 0.00 0.00 0.00 0.00 0.00 0.01 0.02 0.03 0.04 0.05 0.07 0.09 0.11 0.13 0.13 0.11 0.08 0.08 0.07 0.07 0.06 0.05 0.06 0.08 0.09 0.10 0.12
0.34 0.30 0.26 0.24 0.24 0.23 0.20 0.14 0.10 0.09 0.07 0.05 0.03 0.02 0.01 0.01 0.00 0.00 0.00 0.00 0.00 0.00 0.01 0.02 0.04 0.07 0.09 0.12 0.13 0.15 0.16 0.12 0.10 0.09 0.07 0.06 0.05 0.04 0.04 0.06 0.07 0.09 0.11
0.39 0.37 0.32 0.28 0.25 0.24 0.24 0.22 0.19 0.17 0.12 0.08 0.05 0.04 0.03 0.02 0.01 0.00 0.00 0.00 0.00 0.00 0.00 0.01 0.03 0.07 0.10 0.13 0.18 0.21 0.22 0.18 0.13 0.10 0.09 0.08 0.07 0.05 0.04 0.04 0.04 0.05 0.07
0.47 0.45 0.39 0.30 0.26 0.28 0.28 0.24 0.21 0.19 0.15 0.11 0.07 0.06 0.04 0.03 0.02 0.01 0.00 0.00 0.00 0.00 0.00 0.00 0.02 0.05 0.09 0.14 0.19 0.26 0.31 0.26 0.19 0.16 0.13 0.11 0.09 0.07 0.06 0.05 0.04 0.04 0.05
0.50 0.51 0.45 0.38 0.35 0.30 0.28 0.27 0.22 0.19 0.17 0.14 0.10 0.06 0.04 0.02 0.02 0.02 0.02 0.01 0.01 0.00 0.00 0.00 0.01 0.02 0.05 0.09 0.15 0.24 0.32 0.31 0.24 0.20 0.18 0.16 0.14 0.11 0.09 0.09 0.08 0.07 0.07
0.63 0.57 0.52 0.50 0.47 0.41 0.32 0.28 0.26 0.23 0.20 0.19 0.17 0.12 0.06 0.03 0.02 0.01 0.01 0.02 0.01 0.01 0.01 0.01 0.02 0.02 0.02 0.05 0.09 0.16 0.23 0.30 0.30 0.26 0.22 0.19 0.17 0.15 0.14 0.14 0.13 0.13 0.13
0.87 0.76 0.64 0.62 0.60 0.53 0.44 0.40 0.37 0.34 0.29 0.27 0.25 0.19 0.12 0.08 0.04 0.02 0.02 0.01 0.01 0.02 0.02 0.02 0.03 0.02 0.02 0.03 0.05 0.09 0.13 0.22 0.29 0.31 0.30 0.27 0.24 0.22 0.22 0.23 0.22 0.21 0.21
1.01 0.93 0.84 0.77 0.71 0.67 0.62 0.56 0.51 0.47 0.43 0.42 0.39 0.36 0.24 0.13 0.07 0.03 0.02 0.02 0.03 0.03 0.02 0.03 0.03 0.03 0.03 0.03 0.03 0.04 0.07 0.12 0.21 0.29 0.34 0.34 0.32 0.31 0.32 0.35 0.36 0.36 0.33
1.19 1.08 1.03 1.01 0.93 0.83 0.75 0.70 0.66 0.62 0.55 0.50 0.49 0.52 0.40 0.21 0.11 0.06 0.04 0.03 0.03 0.03 0.04 0.05 0.05 0.05 0.04 0.04 0.03 0.03 0.04 0.05 0.11 0.22 0.32 0.37 0.38 0.40 0.44 0.48 0.53 0.55 0.51
1.37 1.30 1.22 1.18 1.14 1.04 0.90 0.85 0.80 0.74 0.70 0.63 0.57 0.49 0.45 0.34 0.30 0.19 0.09 0.07 0.07 0.06 0.07 0.07 0.07 0.07 0.06 0.05 0.05 0.05 0.05 0.06 0.09 0.16 0.28 0.40 0.47 0.51 0.56 0.60 0.65 0.70 0.69
1.45 1.41 1.36 1.33 1.26 1.18 1.09 1.05 1.00 0.94 0.84 0.75 0.67 0.58 0.54 0.45 0.36 0.35 0.23 0.12 0.11 0.10 0.08 0.08 0.07 0.07 0.07 0.07 0.07 0.09 0.11 0.11 0.14 0.20 0.31 0.43 0.53 0.61 0.70 0.74 0.77 0.81 0.83
1.55 1.46 1.39 1.35 1.29 1.25 1.21 1.17 1.16 1.10 1.02 0.93 0.85 0.76 0.70 0.62 0.49 0.47 0.41 0.26 0.21 0.15 0.12 0.10 0.09 0.10 0.11 0.12 0.13 0.17 0.20 0.22 0.24 0.31 0.41 0.51 0.58 0.67 0.79 0.88 0.91 0.89 0.90
1.37 1.36 1.36 1.34 1.30 1.25 1.23 1.23 1.24 1.20 1.13 1.05 0.95 0.88 0.83 0.74 0.65 0.62 0.58 0.42 0.30 0.21 0.16 0.14 0.13 0.14 0.15 0.16 0.19 0.26 0.29 0.34 0.37 0.42 0.51 0.60 0.64 0.67 0.74 0.85 0.97 1.06 1.12
1.29 1.32 1.34 1.35 1.37 1.36 1.30 1.28 1.26 1.23 1.21 1.12 1.00 0.91 0.83 0.76 0.72 0.70 0.67 0.65 0.57 0.40 0.29 0.23 0.21 0.22 0.24 0.27 0.32 0.41 0.42 0.51 0.55 0.58 0.64 0.70 0.74 0.72 0.71 0.74 0.82 0.92 1.00
1.19 1.21 1.23 1.25 1.26 1.28 1.28 1.28 1.24 1.19 1.18 1.13 1.05 0.97 0.87 0.75 0.71 0.70 0.70 0.73 0.81 0.73 0.53 0.37 0.34 0.36 0.39 0.44 0.52 0.52 0.51 0.63 0.68 0.70 0.74 0.76 0.75 0.70 0.67 0.66 0.68 0.70 0.73
1.04 1.08 1.09 1.10 1.11 1.11 1.12 1.15 1.12 1.08 1.07 1.03 1.01 1.01 0.96 0.86 0.82 0.79 0.81 0.85 0.91 0.95 0.83 0.57 0.47 0.48 0.54 0.59 0.67 0.62 0.59 0.67 0.67 0.67 0.69 0.68 0.62 0.57 0.55 0.54 0.56 0.60 0.63
0.91 0.92 0.94 0.95 0.95 0.97 1.00 1.01 0.97 0.93 0.95 0.94 0.92 0.94 0.96 0.93 0.93 0.90 0.91 0.95 1.00 1.05 1.07 0.84 0.67 0.63 0.65 0.64 0.63 0.56 0.51 0.51 0.49 0.57 0.57 0.54 0.49 0.46 0.45 0.46 0.48 0.50 0.53
0.81 0.82 0.83 0.84 0.80 0.79 0.83 0.86 0.87 0.85 0.84 0.84 0.86 0.90 0.92 0.93 0.97 0.97 0.99 1.00 1.00 0.99 1.01 0.93 0.75 0.65 0.59 0.53 0.50 0.45 0.40 0.37 0.34 0.43 0.44 0.44 0.42 0.39 0.39 0.39 0.40 0.42 0.46
0.71 0.73 0.74 0.76 0.78 0.76 0.76 0.77 0.76 0.76 0.76 0.76 0.77 0.79 0.80 0.85 0.89 0.90 0.93 0.96 0.94 0.91 0.88 0.82 0.69 0.57 0.50 0.45 0.43 0.39 0.33 0.30 0.26 0.28 0.30 0.29 0.28 0.28 0.29 0.30 0.30 0.31 0.31
0.55 0.59 0.62 0.65 0.67 0.71 0.74 0.77 0.78 0.76 0.74 0.73 0.73 0.74 0.76 0.79 0.83 0.88 0.92 0.92 0.91 0.91 0.87 0.83 0.74 0.61 0.49 0.42 0.41 0.38 0.34 0.28 0.25 0.21 0.24 0.22 0.20 0.18 0.16 0.16 0.15 0.14 0.14
0.40 0.44 0.50 0.57 0.62 0.64 0.69 0.73 0.76 0.77 0.77 0.77 0.79 0.83 0.86 0.94 0.94 0.90 0.86 0.83 0.81 0.84 0.84 0.81 0.71 0.58 0.48 0.41 0.37 0.32 0.30 0.29 0.27 0.22 0.21 0.19 0.16 0.14 0.11 0.11 0.10 0.09 0.09
0.34 0.37 0.42 0.46 0.53 0.59 0.74 0.73 0.70 0.71 0.78 0.82 0.83 0.82 0.84 0.93 0.90 0.88 0.82 0.76 0.76 0.80 0.80 0.73 0.61 0.48 0.35 0.28 0.27 0.31 0.34 0.36 0.33 0.21 0.18 0.18 0.15 0.14 0.11 0.09 0.10 0.09 0.10
0.35 0.39 0.41 0.45 0.50 0.63 0.79 0.75 0.79 0.73 0.75 0.80 0.81 0.78 0.73 0.70 0.71 0.64 0.68 0.71 0.71 0.68 0.62 0.55 0.49 0.38 0.31 0.28 0.33 0.40 0.38 0.35 0.27 0.17 0.19 0.22 0.18 0.15 0.11 0.10 0.11 0.10 0.10
0.50 0.54 0.58 0.61 0.64 0.73 0.79 0.71 0.68 0.63 0.67 0.69 0.66 0.63 0.59 0.54 0.51 0.51 0.53 0.59 0.51 0.46 0.43 0.38 0.35 0.31 0.30 0.32 0.39 0.45 0.45 0.43 0.34 0.26 0.24 0.25 0.20 0.16 0.12 0.11 0.13 0.12 0.11
0.77 0.75 0.72 0.68 0.65 0.64 0.65 0.59 0.55 0.50 0.51 0.50 0.48 0.46 0.46 0.43 0.49 0.55 0.50 0.45 0.41 0.38 0.41 0.42 0.42 0.40 0.41 0.42 0.42 0.46 0.51 0.55 0.46 0.32 0.24 0.20 0.18 0.16 0.14 0.12 0.13 0.14 0.12
0.70 0.68 0.66 0.63 0.57 0.50 0.45 0.40 0.38 0.35 0.35 0.32 0.31 0.32 0.37 0.38 0.46 0.51 0.44 0.40 0.37 0.32 0.33 0.35 0.36 0.35 0.33 0.35 0.41 0.39 0.44 0.59 0.52 0.36 0.19 0.19 0.20 0.24 0.31 0.17 0.13 0.13 0.12

GEFSMA_prec_meanprecacc_120.txt.gz
Total_Precipitation_Accumulation
0.31 0.29 0.29 0.31 0.31 0.27 0.22 0.17 0.13 0.09 0.06 0.04 0.03 0.02 0.01 0.01 0.01 0.01 0.00 0.00 0.00 0.01 0.02 0.03 0.04 0.05 0.07 0.09 0.11 0.13 0.13 0.11 0.09 0.08 0.08 0.07 0.06 0.06 0.06 0.08 0.09 0.10 0.12
0.37 0.34 0.31 0.30 0.31 0.31 0.29 0.23 0.17 0.16 0.13 0.09 0.06 0.04 0.03 0.02 0.02 0.01 0.01 0.01 0.00 0.01 0.01 0.02 0.04 0.07 0.10 0.12 0.14 0.16 0.16 0.13 0.10 0.09 0.07 0.06 0.05 0.05 0.05 0.06 0.07 0.09 0.11
0.43 0.42 0.38 0.33 0.30 0.32 0.33 0.32 0.29 0.26 0.20 0.15 0.10 0.08 0.06 0.04 0.03 0.02 0.02 0.01 0.01 0.01 0.01 0.02 0.04 0.08 0.11 0.14 0.18 0.22 0.23 0.18 0.14 0.11 0.09 0.08 0.07 0.06 0.04 0.04 0.04 0.05 0.08
0.53 0.52 0.47 0.36 0.31 0.36 0.37 0.35 0.31 0.28 0.23 0.17 0.12 0.10 0.08 0.06 0.05 0.05 0.04 0.03 0.02 0.02 0.01 0.01 0.03 0.06 0.11 0.15 0.20 0.27 0.32 0.26 0.20 0.16 0.14 0.12 0.10 0.08 0.07 0.06 0.05 0.04 0.05
0.56 0.60 0.55 0.49 0.45 0.40 0.38 0.37 0.33 0.29 0.26 0.22 0.17 0.13 0.09 0.06 0.05 0.05 0.05 0.04 0.04 0.03 0.02 0.02 0.03 0.04 0.06 0.10 0.16 0.26 0.34 0.32 0.25 0.21 0.19 0.17 0.14 0.11 0.10 0.09 0.08 0.07 0.07
0.69 0.66 0.66 0.65 0.64 0.57 0.45 0.40 0.37 0.34 0.30 0.31 0.30 0.25 0.18 0.12 0.08 0.06 0.05 0.05 0.04 0.04 0.04 0.03 0.03 0.03 0.04 0.06 0.11 0.18 0.25 0.32 0.32 0.27 0.23 0.21 0.19 0.16 0.15 0.14 0.14 0.13 0.13
0.92 0.86 0.78 0.81 0.82 0.76 0.65 0.58 0.54 0.48 0.42 0.38 0.37 0.31 0.25 0.20 0.14 0.09 0.07 0.06 0.05 0.05 0.05 0.05 0.04 0.04 0.03 0.04 0.06 0.10 0.15 0.23 0.31 0.34 0.32 0.29 0.26 0.24 0.23 0.24 0.24 0.22 0.21
1.06 1.01 0.97 0.94 0.92 0.93 0.90 0.84 0.78 0.69 0.60 0.57 0.53 0.49 0.35 0.24 0.15 0.10 0.09 0.07 0.06 0.06 0.05 0.05 0.05 0.05 0.05 0.04 0.04 0.05 0.08 0.13 0.23 0.32 0.37 0.37 0.35 0.34 0.36 0.38 0.39 0.38 0.35
1.22 1.13 1.11 1.13 1.08 1.03 0.98 0.96 0.93 0.89 0.78 0.71 0.66 0.68 0.54 0.32 0.18 0.11 0.09 0.08 0.08 0.07 0.08 0.08 0.08 0.08 0.06 0.06 0.06 0.05 0.06 0.07 0.13 0.25 0.36 0.42 0.43 0.44 0.48 0.53 0.58 0.59 0.54
1.40 1.34 1.27 1.25 1.23 1.17 1.06 1.03 1.01 0.97 0.93 0.86 0.77 0.66 0.57 0.44 0.39 0.27 0.15 0.13 0.13 0.11 0.12 0.12 0.11 0.10 0.09 0.08 0.08 0.09 0.09 0.08 0.11 0.19 0.32 0.43 0.51 0.55 0.60 0.64 0.70 0.75 0.73
1.48 1.45 1.39 1.37 1.30 1.24 1.19 1.17 1.14 1.10 1.02 0.96 0.90 0.82 0.77 0.63 0.51 0.47 0.32 0.19 0.18 0.17 0.15 0.13 0.12 0.11 0.11 0.11 0.10 0.12 0.14 0.15 0.17 0.23 0.34 0.47 0.56 0.65 0.74 0.78 0.81 0.85 0.87
1.59 1.51 1.43 1.38 1.32 1.28 1.26 1.25 1.26 1.21 1.15 1.09 1.03 0.96 0.92 0.84 0.69 0.64 0.55 0.36 0.28 0.22 0.18 0.17 0.15 0.15 0.15 0.16 0.17 0.20 0.22 0.25 0.28 0.35 0.46 0.55 0.62 0.72 0.84 0.93 0.96 0.94 0.95
1.42 1.40 1.40 1.37 1.32 1.27 1.26 1.26 1.29 1.26 1.21 1.15 1.08 1.03 1.00 0.93 0.84 0.80 0.75 0.56 0.42 0.30 0.24 0.23 0.21 0.20 0.20 0.20 0.22 0.30 0.32 0.36 0.40 0.46 0.56 0.66 0.70 0.73 0.80 0.91 1.03 1.11 1.17
1.36 1.38 1.38 1.38 1.40 1.39 1.33 1.31 1.29 1.27 1.26 1.18 1.07 1.00 0.95 0.89 0.87 0.87 0.85 0.82 0.73 0.53 0.40 0.33 0.29 0.29 0.29 0.31 0.37 0.46 0.45 0.54 0.58 0.62 0.68 0.76 0.80 0.77 0.76 0.79 0.87 0.97 1.04
1.23 1.26 1.27 1.29 1.31 1.32 1.31 1.31 1.28 1.24 1.23 1.19 1.11 1.04 0.94 0.83 0.81 0.81 0.82 0.86 0.94 0.84 0.62 0.44 0.39 0.41 0.44 0.48 0.57 0.57 0.55 0.67 0.72 0.74 0.78 0.81 0.80 0.75 0.71 0.70 0.72 0.74 0.77
1.06 1.11 1.12 1.13 1.15 1.17 1.19 1.22 1.18 1.14 1.12 1.08 1.07 1.08 1.03 0.93 0.89 0.88 0.91 0.95 1.01 1.05 0.91 0.61 0.50 0.52 0.59 0.65 0.73 0.68 0.63 0.71 0.70 0.71 0.73 0.72 0.67 0.62 0.59 0.57 0.59 0.64 0.67
0.94 0.94 0.96 0.98 0.98 1.01 1.05 1.08 1.03 1.01 1.03 1.02 1.00 1.03 1.04 1.01 1.01 0.99 1.02 1.06 1.11 1.16 1.16 0.89 0.70 0.67 0.70 0.70 0.69 0.62 0.57 0.56 0.54 0.62 0.61 0.59 0.54 0.50 0.49 0.50 0.52 0.53 0.56
0.83 0.84 0.86 0.87 0.84 0.83 0.87 0.91 0.93 0.91 0.90 0.91 0.93 0.98 1.01 1.02 1.06 1.05 1.08 1.10 1.11 1.11 1.12 1.01 0.81 0.71 0.65 0.61 0.58 0.54 0.49 0.44 0.40 0.48 0.49 0.49 0.47 0.44 0.43 0.43 0.44 0.46 0.50
0.73 0.75 0.75 0.78 0.80 0.78 0.79 0.80 0.80 0.81 0.81 0.81 0.82 0.85 0.86 0.91 0.96 0.96 1.00 1.04 1.04 1.04 1.02 0.94 0.78 0.64 0.56 0.52 0.52 0.49 0.43 0.38 0.33 0.35 0.36 0.35 0.35 0.35 0.35 0.35 0.35 0.36 0.36
0.56 0.60 0.64 0.66 0.68 0.72 0.76 0.78 0.79 0.78 0.76 0.76 0.75 0.77 0.80 0.84 0.88 0.92 0.97 0.97 0.98 0.99 0.99 0.96 0.86 0.71 0.58 0.50 0.50 0.48 0.44 0.37 0.32 0.28 0.32 0.30 0.28 0.27 0.24 0.23 0.21 0.19 0.19
0.41 0.45 0.50 0.58 0.62 0.65 0.69 0.73 0.76 0.78 0.78 0.78 0.80 0.84 0.89 0.98 0.99 0.95 0.91 0.89 0.88 0.92 0.93 0.91 0.82 0.69 0.57 0.51 0.48 0.42 0.40 0.37 0.35 0.30 0.30 0.28 0.25 0.23 0.20 0.19 0.17 0.15 0.15
0.34 0.37 0.42 0.46 0.53 0.60 0.75 0.74 0.70 0.71 0.79 0.83 0.85 0.85 0.87 0.97 0.94 0.93 0.87 0.82 0.82 0.88 0.88 0.82 0.70 0.57 0.44 0.36 0.35 0.40 0.44 0.48 0.46 0.30 0.27 0.27 0.24 0.24 0.20 0.17 0.18 0.17 0.16
0.36 0.39 0.41 0.45 0.51 0.64 0.80 0.76 0.80 0.73 0.76 0.81 0.83 0.81 0.77 0.74 0.76 0.68 0.73 0.77 0.76 0.75 0.70 0.63 0.58 0.46 0.39 0.35 0.41 0.50 0.49 0.46 0.36 0.24 0.27 0.33 0.28 0.24 0.19 0.18 0.22 0.20 0.18
0.50 0.54 0.59 0.62 0.65 0.74 0.80 0.72 0.69 0.64 0.67 0.70 0.68 0.66 0.62 0.56 0.54 0.55 0.57 0.63 0.56 0.52 0.50 0.45 0.42 0.39 0.38 0.39 0.46 0.54 0.55 0.55 0.46 0.39 0.37 0.40 0.32 0.26 0.20 0.19 0.23 0.22 0.21
0.78 0.76 0.73 0.69 0.65 0.65 0.65 0.60 0.55 0.51 0.51 0.51 0.49 0.48 0.47 0.45 0.51 0.57 0.53 0.49 0.44 0.43 0.46 0.48 0.48 0.47 0.50 0.53 0.54 0.59 0.67 0.73 0.63 0.47 0.37 0.33 0.29 0.25 0.24 0.22 0.23 0.26 0.25
0.70 0.68 0.66 0.64 0.57 0.51 0.46 0.41 0.39 0.36 0.35 0.33 0.32 0.32 0.38 0.39 0.47 0.52 0.45 0.42 0.40 0.35 0.36 0.40 0.41 0.40 0.39 0.42 0.52 0.50 0.57 0.75 0.66 0.47 0.28 0.29 0.32 0.36 0.45 0.29 0.23 0.24 0.26

GEFSMA_prec_meanprecacc_126.txt.gz
Total_Precipitation_Accumulation
0.31 0.30 0.30 0.33 0.34 0.33 0.28 0.24 0.20 0.17 0.13 0.10 0.07 0.04 0.03 0.02 0.02 0.01 0.01 0.02 0.02 0.02 0.04 0.05 0.06 0.07 0.08 0.10 0.12 0.14 0.14 0.11 0.09 0.08 0.08 0.07 0.06 0.06 0.07 0.08 0.10 0.11 0.12
0.39 0.35 0.32 0.31 0.33 0.35 0.36 0.32 0.27 0.26 0.22 0.17 0.12 0.09 0.06 0.04 0.03 0.02 0.02 0.02 0.02 0.02 0.02 0.04 0.08 0.11 0.13 0.14 0.16 0.17 0.17 0.13 0.11 0.10 0.07 0.06 0.06 0.05 0.05 0.06 0.07 0.09 0.11
0.45 0.44 0.40 0.35 0.32 0.34 0.37 0.39 0.38 0.37 0.31 0.26 0.20 0.17 0.13 0.10 0.08 0.05 0.03 0.02 0.02 0.02 0.02 0.03 0.07 0.12 0.16 0.18 0.22 0.25 0.25 0.20 0.15 0.11 0.10 0.09 0.08 0.06 0.05 0.05 0.05 0.06 0.08
0.54 0.54 0.49 0.38 0.33 0.39 0.42 0.40 0.38 0.37 0.32 0.26 0.21 0.19 0.16 0.14 0.12 0.11 0.09 0.06 0.04 0.03 0.03 0.03 0.05 0.09 0.14 0.19 0.25 0.32 0.36 0.31 0.23 0.18 0.15 0.13 0.11 0.09 0.08 0.07 0.06 0.05 0.05
0.59 0.62 0.57 0.51 0.48 0.43 0.42 0.43 0.38 0.36 0.34 0.31 0.27 0.22 0.17 0.13 0.10 0.10 0.09 0.08 0.06 0.05 0.04 0.04 0.05 0.07 0.10 0.15 0.22 0.32 0.40 0.38 0.30 0.24 0.21 0.19 0.16 0.13 0.11 0.11 0.10 0.08 0.08
0.72 0.69 0.68 0.67 0.68 0.61 0.50 0.46 0.44 0.41 0.37 0.38 0.40 0.35 0.28 0.21 0.15 0.11 0.09 0.08 0.07 0.07 0.06 0.05 0.05 0.05 0.07 0.11 0.18 0.26 0.33 0.40 0.38 0.33 0.28 0.24 0.21 0.18 0.17 0.16 0.15 0.15 0.15
0.95 0.89 0.82 0.85 0.86 0.80 0.70 0.64 0.61 0.58 0.53 0.52 0.52 0.44 0.36 0.32 0.26 0.19 0.15 0.12 0.09 0.08 0.08 0.07 0.06 0.05 0.05 0.07 0.11 0.17 0.24 0.33 0.40 0.42 0.39 0.35 0.31 0.28 0.27 0.27 0.26 0.24 0.24
1.08 1.04 1.01 0.98 0.97 0.97 0.96 0.92 0.88 0.83 0.76 0.75 0.74 0.69 0.53 0.39 0.28 0.20 0.18 0.17 0.15 0.14 0.11 0.10 0.09 0.08 0.07 0.07 0.07 0.09 0.13 0.21 0.32 0.42 0.46 0.45 0.42 0.39 0.40 0.42 0.43 0.42 0.39
1.24 1.15 1.12 1.16 1.11 1.06 1.03 1.02 1.01 0.98 0.93 0.89 0.87 0.91 0.75 0.51 0.33 0.23 0.19 0.17 0.17 0.16 0.16 0.16 0.15 0.13 0.10 0.09 0.09 0.09 0.10 0.12 0.20 0.34 0.46 0.52 0.52 0.52 0.54 0.59 0.64 0.65 0.60
1.42 1.36 1.29 1.28 1.25 1.20 1.10 1.09 1.07 1.02 0.99 0.94 0.90 0.82 0.74 0.60 0.53 0.38 0.23 0.21 0.21 0.20 0.21 0.21 0.21 0.20 0.19 0.16 0.13 0.13 0.13 0.14 0.18 0.27 0.42 0.55 0.63 0.66 0.69 0.72 0.78 0.83 0.81
1.51 1.46 1.41 1.38 1.32 1.26 1.21 1.21 1.18 1.15 1.08 1.02 0.97 0.91 0.88 0.75 0.61 0.57 0.41 0.27 0.27 0.26 0.25 0.24 0.24 0.24 0.24 0.22 0.20 0.20 0.21 0.21 0.24 0.32 0.45 0.59 0.70 0.78 0.87 0.90 0.91 0.95 0.96
1.62 1.52 1.44 1.39 1.33 1.30 1.28 1.27 1.30 1.26 1.20 1.14 1.09 1.02 1.01 0.94 0.79 0.74 0.64 0.42 0.35 0.29 0.27 0.27 0.27 0.28 0.28 0.28 0.27 0.31 0.30 0.31 0.34 0.42 0.55 0.67 0.75 0.84 0.96 1.05 1.07 1.04 1.05
1.43 1.41 1.42 1.39 1.35 1.29 1.28 1.29 1.31 1.28 1.23 1.18 1.11 1.07 1.06 1.01 0.91 0.88 0.83 0.63 0.49 0.37 0.33 0.32 0.31 0.30 0.30 0.30 0.32 0.40 0.41 0.44 0.46 0.52 0.63 0.74 0.79 0.82 0.90 1.01 1.14 1.22 1.27
1.36 1.39 1.39 1.40 1.42 1.41 1.36 1.34 1.34 1.31 1.29 1.20 1.09 1.03 0.98 0.93 0.92 0.93 0.91 0.89 0.82 0.62 0.50 0.42 0.37 0.37 0.38 0.40 0.46 0.54 0.52 0.62 0.65 0.68 0.75 0.83 0.87 0.84 0.83 0.87 0.97 1.08 1.14
1.23 1.27 1.28 1.30 1.32 1.34 1.33 1.33 1.31 1.26 1.26 1.23 1.15 1.07 0.97 0.86 0.85 0.85 0.87 0.92 1.01 0.92 0.69 0.51 0.47 0.49 0.53 0.57 0.65 0.65 0.61 0.74 0.79 0.80 0.84 0.87 0.87 0.83 0.79 0.77 0.79 0.83 0.86
1.06 1.11 1.13 1.14 1.16 1.18 1.21 1.24 1.21 1.17 1.15 1.11 1.09 1.09 1.05 0.96 0.92 0.92 0.95 1.00 1.07 1.12 0.97 0.66 0.55 0.56 0.65 0.72 0.81 0.76 0.69 0.79 0.78 0.77 0.79 0.79 0.74 0.69 0.67 0.67 0.68 0.71 0.73
0.94 0.95 0.97 0.99 0.99 1.02 1.06 1.10 1.06 1.04 1.06 1.05 1.04 1.07 1.08 1.05 1.05 1.03 1.06 1.11 1.16 1.22 1.22 0.93 0.74 0.71 0.75 0.75 0.76 0.71 0.66 0.65 0.63 0.70 0.68 0.66 0.62 0.58 0.57 0.58 0.61 0.62 0.63
0.85 0.86 0.87 0.88 0.85 0.84 0.88 0.92 0.95 0.94 0.94 0.95 0.98 1.03 1.06 1.07 1.11 1.11 1.14 1.17 1.17 1.17 1.17 1.05 0.84 0.75 0.70 0.65 0.63 0.61 0.58 0.54 0.49 0.57 0.57 0.56 0.54 0.52 0.51 0.51 0.51 0.54 0.57
0.74 0.77 0.77 0.79 0.81 0.79 0.80 0.81 0.81 0.83 0.84 0.84 0.85 0.89 0.90 0.95 1.00 1.01 1.04 1.09 1.10 1.10 1.08 0.99 0.82 0.68 0.60 0.57 0.58 0.56 0.50 0.47 0.43 0.44 0.45 0.43 0.42 0.42 0.43 0.44 0.44 0.44 0.42
0.56 0.61 0.65 0.68 0.69 0.72 0.76 0.79 0.80 0.78 0.77 0.77 0.77 0.79 0.82 0.87 0.91 0.96 1.00 1.01 1.02 1.04 1.04 1.02 0.92 0.77 0.64 0.56 0.56 0.55 0.51 0.43 0.39 0.35 0.40 0.38 0.36 0.34 0.32 0.32 0.30 0.28 0.27
0.41 0.45 0.51 0.58 0.63 0.65 0.70 0.74 0.76 0.78 0.78 0.78 0.81 0.85 0.90 0.99 1.01 0.97 0.94 0.91 0.91 0.95 0.97 0.96 0.87 0.75 0.64 0.57 0.55 0.49 0.47 0.44 0.42 0.37 0.38 0.36 0.32 0.30 0.28 0.28 0.26 0.24 0.24
0.34 0.37 0.42 0.47 0.53 0.60 0.76 0.74 0.70 0.72 0.79 0.83 0.85 0.85 0.88 0.97 0.96 0.94 0.88 0.84 0.85 0.90 0.92 0.85 0.74 0.61 0.48 0.41 0.41 0.47 0.52 0.56 0.53 0.36 0.35 0.35 0.31 0.31 0.26 0.23 0.26 0.26 0.25
0.36 0.39 0.41 0.45 0.51 0.64 0.80 0.77 0.80 0.74 0.76 0.82 0.83 0.81 0.77 0.74 0.76 0.69 0.73 0.78 0.78 0.78 0.73 0.66 0.61 0.50 0.42 0.38 0.46 0.55 0.55 0.53 0.43 0.30 0.35 0.42 0.36 0.33 0.25 0.24 0.29 0.27 0.26
0.50 0.54 0.59 0.62 0.65 0.74 0.80 0.72 0.69 0.64 0.68 0.70 0.68 0.66 0.62 0.57 0.55 0.55 0.58 0.64 0.57 0.53 0.52 0.48 0.45 0.41 0.41 0.42 0.49 0.58 0.61 0.62 0.53 0.46 0.45 0.50 0.40 0.33 0.27 0.26 0.31 0.29 0.29
0.78 0.76 0.73 0.69 0.66 0.66 0.66 0.60 0.56 0.52 0.52 0.52 0.50 0.49 0.49 0.46 0.52 0.59 0.54 0.50 0.46 0.45 0.49 0.50 0.51 0.51 0.54 0.56 0.57 0.63 0.71 0.78 0.70 0.53 0.43 0.41 0.36 0.32 0.31 0.30 0.31 0.35 0.33
0.70 0.68 0.67 0.64 0.58 0.51 0.46 0.41 0.39 0.36 0.36 0.34 0.32 0.33 0.39 0.40 0.49 0.54 0.47 0.45 0.42 0.37 0.38 0.42 0.44 0.43 0.41 0.45 0.54 0.53 0.61 0.80 0.71 0.52 0.32 0.35 0.38 0.43 0.55 0.38 0.30 0.31 0.35

GEFSMA_prec_meanprecacc_132.txt.gz
Total_Precipitation_Accumulation
0.32 0.30 0.30 0.33 0.35 0.34 0.30 0.25 0.23 0.20 0.18 0.16 0.13 0.10 0.10 0.08 0.05 0.04 0.03 0.03 0.03 0.03 0.05 0.08 0.10 0.11 0.12 0.13 0.14 0.16 0.16 0.13 0.10 0.09 0.08 0.07 0.07 0.06 0.07 0.09 0.10 0.11 0.12
0.40 0.37 0.33 0.32 0.34 0.35 0.36 0.33 0.30 0.29 0.26 0.23 0.18 0.15 0.12 0.12 0.10 0.06 0.04 0.03 0.03 0.03 0.03 0.06 0.11 0.16 0.18 0.20 0.21 0.21 0.20 0.16 0.13 0.12 0.09 0.07 0.06 0.05 0.05 0.06 0.08 0.10 0.12
0.48 0.45 0.41 0.36 0.33 0.35 0.38 0.40 0.40 0.40 0.35 0.30 0.25 0.23 0.21 0.18 0.17 0.15 0.10 0.07 0.05 0.04 0.03 0.04 0.09 0.16 0.21 0.25 0.29 0.31 0.31 0.24 0.18 0.15 0.13 0.11 0.09 0.08 0.07 0.06 0.06 0.06 0.08
0.57 0.55 0.49 0.38 0.33 0.39 0.42 0.41 0.39 0.39 0.34 0.29 0.24 0.24 0.24 0.23 0.21 0.21 0.19 0.16 0.12 0.09 0.06 0.05 0.06 0.12 0.19 0.26 0.33 0.41 0.45 0.38 0.29 0.24 0.21 0.18 0.14 0.12 0.10 0.08 0.07 0.06 0.07
0.63 0.65 0.59 0.53 0.49 0.44 0.43 0.44 0.39 0.37 0.36 0.34 0.31 0.27 0.24 0.22 0.20 0.20 0.19 0.16 0.13 0.10 0.09 0.08 0.08 0.09 0.13 0.20 0.29 0.42 0.51 0.47 0.38 0.31 0.28 0.25 0.21 0.17 0.14 0.13 0.11 0.10 0.09
0.73 0.72 0.72 0.71 0.70 0.63 0.51 0.47 0.45 0.43 0.40 0.43 0.45 0.41 0.35 0.29 0.26 0.23 0.21 0.18 0.14 0.12 0.11 0.10 0.10 0.09 0.09 0.14 0.23 0.34 0.43 0.51 0.50 0.43 0.37 0.32 0.28 0.24 0.22 0.20 0.19 0.18 0.17
0.95 0.90 0.83 0.88 0.90 0.84 0.73 0.67 0.64 0.61 0.57 0.57 0.58 0.50 0.43 0.40 0.37 0.31 0.27 0.25 0.21 0.18 0.15 0.14 0.12 0.11 0.09 0.10 0.14 0.22 0.31 0.43 0.51 0.54 0.51 0.45 0.41 0.37 0.34 0.33 0.32 0.29 0.28
1.08 1.05 1.02 1.00 1.00 1.01 0.99 0.94 0.91 0.86 0.80 0.80 0.79 0.75 0.59 0.45 0.35 0.31 0.31 0.30 0.28 0.26 0.23 0.21 0.18 0.15 0.13 0.11 0.10 0.12 0.18 0.28 0.41 0.52 0.57 0.56 0.52 0.50 0.50 0.52 0.52 0.51 0.47
1.24 1.15 1.13 1.16 1.12 1.08 1.05 1.04 1.04 1.02 0.96 0.92 0.91 0.96 0.81 0.56 0.38 0.29 0.26 0.27 0.29 0.29 0.29 0.30 0.30 0.27 0.21 0.18 0.16 0.14 0.14 0.17 0.27 0.43 0.58 0.64 0.64 0.64 0.66 0.72 0.76 0.77 0.71
1.42 1.36 1.29 1.28 1.26 1.21 1.11 1.10 1.09 1.05 1.02 0.97 0.94 0.86 0.79 0.64 0.58 0.43 0.29 0.27 0.29 0.28 0.30 0.32 0.35 0.36 0.35 0.32 0.28 0.25 0.22 0.20 0.25 0.36 0.53 0.69 0.78 0.83 0.86 0.89 0.92 0.96 0.93
1.51 1.46 1.41 1.39 1.32 1.26 1.22 1.22 1.20 1.17 1.11 1.05 1.00 0.94 0.92 0.79 0.65 0.61 0.45 0.32 0.32 0.33 0.34 0.35 0.37 0.38 0.40 0.39 0.35 0.34 0.34 0.30 0.33 0.42 0.55 0.72 0.85 0.97 1.07 1.10 1.10 1.12 1.12
1.62 1.52 1.44 1.39 1.33 1.30 1.28 1.28 1.31 1.27 1.23 1.18 1.13 1.07 1.06 1.00 0.85 0.79 0.69 0.46 0.39 0.35 0.34 0.35 0.35 0.37 0.38 0.39 0.39 0.42 0.41 0.42 0.44 0.52 0.66 0.79 0.88 0.99 1.12 1.23 1.25 1.20 1.19
1.43 1.41 1.42 1.39 1.35 1.29 1.28 1.30 1.32 1.29 1.25 1.21 1.14 1.11 1.10 1.06 0.97 0.94 0.88 0.68 0.53 0.41 0.37 0.36 0.35 0.35 0.36 0.37 0.40 0.49 0.49 0.52 0.55 0.62 0.74 0.86 0.90 0.94 1.03 1.17 1.31 1.37 1.40
1.36 1.39 1.39 1.40 1.42 1.41 1.36 1.35 1.35 1.32 1.30 1.22 1.11 1.05 1.01 0.96 0.96 0.98 0.96 0.95 0.86 0.66 0.52 0.44 0.39 0.39 0.41 0.45 0.52 0.62 0.60 0.71 0.73 0.76 0.85 0.93 0.95 0.93 0.93 0.99 1.11 1.22 1.28
1.23 1.27 1.28 1.30 1.32 1.34 1.33 1.33 1.31 1.28 1.28 1.25 1.18 1.10 0.99 0.88 0.87 0.89 0.92 0.98 1.07 0.97 0.73 0.54 0.50 0.51 0.55 0.60 0.69 0.70 0.67 0.81 0.87 0.88 0.92 0.96 0.96 0.90 0.86 0.86 0.90 0.95 0.99
1.06 1.11 1.13 1.14 1.16 1.18 1.21 1.24 1.21 1.17 1.16 1.13 1.12 1.12 1.06 0.97 0.94 0.94 0.98 1.04 1.11 1.16 1.00 0.68 0.58 0.59 0.68 0.75 0.84 0.79 0.74 0.85 0.84 0.83 0.85 0.85 0.81 0.76 0.74 0.73 0.75 0.80 0.84
0.94 0.95 0.97 0.99 0.99 1.02 1.06 1.10 1.06 1.05 1.07 1.06 1.05 1.08 1.09 1.06 1.07 1.05 1.08 1.13 1.19 1.25 1.25 0.96 0.77 0.74 0.77 0.78 0.79 0.74 0.69 0.70 0.68 0.76 0.74 0.71 0.67 0.65 0.63 0.64 0.66 0.69 0.71
0.85 0.86 0.87 0.89 0.86 0.85 0.89 0.93 0.95 0.94 0.95 0.96 0.99 1.04 1.07 1.08 1.12 1.13 1.16 1.19 1.20 1.19 1.20 1.08 0.88 0.79 0.74 0.70 0.68 0.66 0.63 0.60 0.56 0.64 0.64 0.62 0.61 0.59 0.58 0.58 0.58 0.59 0.64
0.75 0.77 0.77 0.80 0.82 0.80 0.81 0.82 0.83 0.84 0.85 0.85 0.86 0.89 0.91 0.96 1.02 1.03 1.06 1.11 1.12 1.11 1.11 1.03 0.86 0.71 0.65 0.63 0.66 0.64 0.58 0.55 0.50 0.51 0.53 0.51 0.50 0.51 0.51 0.52 0.52 0.52 0.50
0.57 0.62 0.66 0.69 0.70 0.73 0.76 0.79 0.82 0.81 0.79 0.79 0.78 0.80 0.83 0.87 0.92 0.98 1.02 1.03 1.04 1.06 1.07 1.05 0.96 0.80 0.68 0.61 0.63 0.63 0.58 0.50 0.45 0.41 0.48 0.47 0.45 0.44 0.42 0.41 0.38 0.36 0.36
0.41 0.45 0.51 0.58 0.64 0.66 0.70 0.74 0.77 0.79 0.80 0.80 0.82 0.86 0.91 1.00 1.02 0.98 0.95 0.92 0.92 0.96 0.99 0.99 0.91 0.78 0.68 0.61 0.61 0.56 0.54 0.51 0.49 0.44 0.44 0.42 0.39 0.39 0.37 0.37 0.35 0.31 0.31
0.34 0.37 0.43 0.47 0.54 0.60 0.76 0.75 0.71 0.72 0.80 0.84 0.85 0.85 0.88 0.98 0.96 0.95 0.89 0.85 0.86 0.91 0.93 0.87 0.76 0.63 0.51 0.44 0.44 0.51 0.56 0.61 0.59 0.42 0.41 0.41 0.38 0.39 0.34 0.31 0.34 0.33 0.32
0.36 0.39 0.41 0.45 0.51 0.64 0.80 0.77 0.80 0.74 0.77 0.82 0.84 0.82 0.78 0.75 0.76 0.69 0.74 0.79 0.79 0.78 0.74 0.67 0.62 0.51 0.43 0.40 0.48 0.58 0.59 0.58 0.48 0.35 0.40 0.47 0.42 0.39 0.32 0.31 0.36 0.34 0.33
0.50 0.55 0.59 0.62 0.65 0.74 0.80 0.72 0.69 0.64 0.68 0.70 0.69 0.67 0.63 0.58 0.56 0.56 0.59 0.65 0.57 0.54 0.53 0.48 0.45 0.42 0.41 0.43 0.51 0.61 0.64 0.65 0.57 0.50 0.50 0.55 0.45 0.39 0.33 0.32 0.38 0.36 0.36
0.78 0.76 0.73 0.69 0.66 0.66 0.66 0.61 0.57 0.52 0.53 0.52 0.50 0.49 0.49 0.47 0.53 0.60 0.55 0.51 0.47 0.45 0.49 0.51 0.52 0.51 0.55 0.57 0.59 0.65 0.73 0.81 0.74 0.57 0.48 0.46 0.42 0.38 0.37 0.37 0.39 0.43 0.41
0.70 0.68 0.67 0.64 0.58 0.51 0.47 0.42 0.40 0.37 0.36 0.34 0.33 0.33 0.39 0.41 0.49 0.55 0.48 0.45 0.43 0.38 0.39 0.43 0.45 0.44 0.42 0.46 0.55 0.55 0.63 0.83 0.74 0.55 0.36 0.39 0.43 0.49 0.61 0.44 0.37 0.39 0.42

GEFSMA_prec_meanprecacc_138.txt.gz
Total_Precipitation_Accumulation
0.36 0.32 0.31 0.33 0.35 0.34 0.31 0.27 0.24 0.23 0.21 0.19 0.16 0.15 0.15 0.15 0.13 0.12 0.11 0.10 0.08 0.08 0.09 0.11 0.13 0.14 0.15 0.17 0.18 0.19 0.18 0.16 0.13 0.12 0.11 0.10 0.09 0.08 0.08 0.09 0.11 0.12 0.13
0.45 0.40 0.36 0.33 0.34 0.36 0.37 0.35 0.32 0.31 0.28 0.25 0.21 0.18 0.16 0.17 0.17 0.15 0.13 0.12 0.10 0.08 0.08 0.10 0.15 0.20 0.23 0.25 0.26 0.27 0.25 0.20 0.17 0.15 0.12 0.11 0.09 0.08 0.08 0.08 0.09 0.11 0.12
0.51 0.49 0.46 0.40 0.36 0.38 0.41 0.42 0.42 0.42 0.37 0.32 0.27 0.25 0.23 0.23 0.22 0.22 0.20 0.17 0.14 0.11 0.10 0.10 0.15 0.23 0.28 0.31 0.35 0.38 0.37 0.29 0.24 0.19 0.17 0.15 0.13 0.12 0.10 0.09 0.09 0.09 0.10
0.59 0.58 0.53 0.43 0.37 0.43 0.45 0.43 0.41 0.41 0.36 0.31 0.26 0.25 0.25 0.25 0.25 0.26 0.29 0.29 0.26 0.20 0.15 0.11 0.12 0.17 0.25 0.33 0.40 0.48 0.52 0.45 0.36 0.30 0.26 0.23 0.20 0.17 0.14 0.13 0.12 0.10 0.10
0.65 0.68 0.63 0.57 0.53 0.47 0.46 0.46 0.41 0.39 0.38 0.36 0.33 0.28 0.25 0.23 0.23 0.24 0.25 0.27 0.29 0.27 0.20 0.15 0.14 0.15 0.19 0.26 0.37 0.50 0.60 0.57 0.48 0.40 0.36 0.33 0.29 0.24 0.20 0.19 0.16 0.15 0.14
0.74 0.73 0.74 0.73 0.73 0.67 0.55 0.51 0.48 0.45 0.42 0.44 0.47 0.42 0.36 0.32 0.28 0.26 0.26 0.25 0.24 0.25 0.23 0.19 0.17 0.15 0.15 0.19 0.29 0.42 0.53 0.62 0.62 0.57 0.50 0.44 0.39 0.35 0.32 0.29 0.26 0.24 0.24
0.95 0.91 0.84 0.89 0.91 0.84 0.75 0.69 0.67 0.63 0.58 0.58 0.59 0.51 0.44 0.42 0.39 0.34 0.33 0.33 0.31 0.30 0.28 0.25 0.22 0.19 0.16 0.16 0.20 0.29 0.39 0.53 0.63 0.67 0.68 0.65 0.57 0.50 0.46 0.43 0.41 0.38 0.36
1.09 1.05 1.02 1.00 1.00 1.01 1.00 0.96 0.92 0.87 0.81 0.81 0.81 0.78 0.61 0.46 0.37 0.33 0.34 0.35 0.35 0.35 0.33 0.30 0.26 0.24 0.21 0.19 0.17 0.19 0.25 0.36 0.52 0.65 0.71 0.73 0.72 0.68 0.64 0.64 0.63 0.60 0.54
1.24 1.15 1.13 1.16 1.12 1.08 1.05 1.05 1.04 1.02 0.96 0.93 0.93 0.98 0.84 0.58 0.40 0.31 0.28 0.29 0.33 0.35 0.36 0.38 0.39 0.36 0.30 0.27 0.24 0.22 0.21 0.24 0.36 0.54 0.71 0.78 0.79 0.81 0.83 0.87 0.90 0.90 0.81
1.43 1.36 1.29 1.28 1.26 1.21 1.11 1.10 1.09 1.05 1.03 0.98 0.95 0.88 0.81 0.66 0.61 0.46 0.31 0.29 0.32 0.33 0.36 0.40 0.43 0.45 0.45 0.43 0.40 0.37 0.32 0.27 0.31 0.44 0.63 0.82 0.93 0.99 1.02 1.03 1.06 1.09 1.05
1.52 1.46 1.41 1.39 1.32 1.26 1.22 1.23 1.20 1.18 1.11 1.06 1.01 0.95 0.93 0.80 0.67 0.64 0.48 0.34 0.35 0.36 0.38 0.42 0.45 0.47 0.48 0.47 0.44 0.44 0.45 0.41 0.42 0.50 0.65 0.84 1.00 1.16 1.25 1.27 1.25 1.26 1.25
1.62 1.52 1.44 1.39 1.33 1.30 1.28 1.28 1.31 1.28 1.23 1.18 1.13 1.07 1.07 1.01 0.86 0.81 0.72 0.51 0.43 0.39 0.38 0.40 0.42 0.44 0.47 0.48 0.47 0.51 0.49 0.49 0.52 0.61 0.76 0.90 1.01 1.13 1.29 1.41 1.43 1.38 1.34
1.43 1.41 1.42 1.39 1.35 1.29 1.28 1.30 1.32 1.30 1.25 1.21 1.15 1.11 1.11 1.06 0.98 0.96 0.91 0.72 0.58 0.46 0.43 0.43 0.42 0.43 0.45 0.47 0.49 0.58 0.56 0.58 0.61 0.68 0.81 0.94 0.99 1.04 1.16 1.32 1.48 1.56 1.60
1.36 1.39 1.39 1.40 1.42 1.41 1.36 1.35 1.35 1.32 1.30 1.22 1.11 1.05 1.02 0.97 0.97 0.99 0.98 0.97 0.89 0.69 0.56 0.49 0.44 0.44 0.47 0.52 0.60 0.70 0.65 0.76 0.77 0.81 0.90 0.99 1.02 1.01 1.03 1.10 1.23 1.37 1.46
1.23 1.27 1.28 1.30 1.32 1.34 1.33 1.33 1.32 1.28 1.28 1.25 1.18 1.10 0.99 0.88 0.87 0.89 0.93 1.00 1.10 1.00 0.76 0.58 0.56 0.58 0.62 0.67 0.77 0.76 0.71 0.86 0.91 0.92 0.96 1.00 1.01 0.97 0.95 0.96 1.00 1.06 1.12
1.06 1.11 1.13 1.14 1.16 1.18 1.21 1.24 1.22 1.18 1.16 1.13 1.12 1.12 1.07 0.97 0.94 0.95 0.99 1.05 1.14 1.19 1.03 0.72 0.63 0.65 0.75 0.83 0.93 0.86 0.80 0.91 0.88 0.87 0.89 0.88 0.85 0.82 0.81 0.81 0.84 0.89 0.93
0.94 0.95 0.97 0.99 0.99 1.02 1.06 1.10 1.06 1.05 1.07 1.06 1.05 1.08 1.10 1.07 1.08 1.06 1.10 1.16 1.22 1.29 1.29 1.00 0.81 0.77 0.81 0.83 0.84 0.80 0.75 0.76 0.73 0.81 0.77 0.74 0.70 0.68 0.68 0.70 0.72 0.75 0.78
0.85 0.86 0.87 0.89 0.86 0.85 0.89 0.93 0.95 0.95 0.95 0.96 0.99 1.05 1.08 1.09 1.13 1.14 1.18 1.21 1.24 1.24 1.24 1.12 0.91 0.81 0.76 0.72 0.71 0.69 0.66 0.63 0.60 0.68 0.67 0.64 0.62 0.61 0.61 0.63 0.64 0.66 0.70
0.75 0.77 0.78 0.80 0.82 0.80 0.81 0.82 0.83 0.84 0.85 0.85 0.86 0.90 0.91 0.97 1.03 1.04 1.08 1.13 1.14 1.14 1.13 1.05 0.88 0.73 0.66 0.64 0.67 0.66 0.60 0.56 0.52 0.55 0.57 0.54 0.53 0.53 0.53 0.55 0.57 0.59 0.56
0.57 0.62 0.67 0.70 0.70 0.73 0.77 0.80 0.82 0.81 0.80 0.79 0.79 0.81 0.83 0.88 0.93 0.98 1.03 1.05 1.06 1.08 1.08 1.06 0.97 0.82 0.69 0.62 0.64 0.64 0.60 0.53 0.48 0.44 0.52 0.51 0.49 0.47 0.45 0.43 0.41 0.41 0.42
0.42 0.45 0.51 0.59 0.64 0.66 0.70 0.74 0.77 0.80 0.80 0.80 0.82 0.87 0.91 1.01 1.02 0.99 0.96 0.94 0.94 0.98 1.01 1.01 0.92 0.80 0.69 0.63 0.62 0.57 0.56 0.54 0.52 0.47 0.47 0.45 0.43 0.42 0.40 0.41 0.39 0.36 0.37
0.34 0.37 0.43 0.47 0.54 0.60 0.76 0.75 0.71 0.72 0.80 0.84 0.86 0.86 0.89 0.99 0.97 0.96 0.90 0.85 0.87 0.93 0.95 0.89 0.78 0.65 0.52 0.45 0.45 0.52 0.57 0.63 0.62 0.45 0.44 0.44 0.41 0.42 0.38 0.36 0.40 0.38 0.37
0.36 0.39 0.41 0.45 0.51 0.65 0.80 0.77 0.81 0.74 0.77 0.82 0.84 0.82 0.78 0.75 0.77 0.69 0.75 0.79 0.80 0.79 0.75 0.68 0.63 0.52 0.44 0.41 0.49 0.60 0.61 0.59 0.49 0.37 0.43 0.51 0.46 0.43 0.36 0.36 0.41 0.38 0.38
0.50 0.55 0.59 0.63 0.66 0.75 0.81 0.73 0.70 0.65 0.68 0.71 0.69 0.67 0.63 0.58 0.56 0.56 0.59 0.65 0.58 0.54 0.54 0.49 0.46 0.43 0.43 0.45 0.54 0.64 0.67 0.69 0.60 0.52 0.52 0.58 0.49 0.43 0.37 0.37 0.42 0.40 0.41
0.78 0.76 0.73 0.69 0.66 0.66 0.67 0.61 0.57 0.52 0.53 0.53 0.50 0.49 0.49 0.47 0.53 0.60 0.55 0.51 0.47 0.46 0.50 0.52 0.53 0.52 0.56 0.59 0.61 0.67 0.75 0.83 0.75 0.58 0.49 0.47 0.43 0.40 0.41 0.41 0.44 0.48 0.45
0.70 0.68 0.67 0.64 0.58 0.52 0.47 0.42 0.40 0.37 0.37 0.35 0.33 0.34 0.39 0.41 0.50 0.56 0.48 0.46 0.43 0.38 0.39 0.43 0.45 0.44 0.42 0.46 0.56 0.55 0.63 0.84 0.75 0.56 0.36 0.40 0.43 0.50 0.63 0.46 0.40 0.43 0.48

GEFSMA_prec_meanprecacc_144.txt.gz
Total_Precipitation_Accumulation
0.38 0.34 0.31 0.33 0.35 0.34 0.31 0.27 0.24 0.23 0.21 0.20 0.18 0.17 0.18 0.17 0.15 0.13 0.12 0.12 0.11 0.11 0.14 0.19 0.23 0.25 0.25 0.25 0.24 0.25 0.23 0.20 0.17 0.16 0.15 0.13 0.12 0.11 0.11 0.12 0.13 0.14 0.15
0.49 0.44 0.39 0.35 0.35 0.36 0.37 0.35 0.32 0.31 0.28 0.25 0.22 0.20 0.18 0.19 0.19 0.18 0.16 0.15 0.12 0.11 0.11 0.16 0.23 0.30 0.33 0.35 0.36 0.34 0.30 0.24 0.22 0.20 0.17 0.15 0.13 0.11 0.10 0.11 0.11 0.13 0.14
0.54 0.52 0.48 0.43 0.39 0.40 0.42 0.43 0.44 0.44 0.38 0.32 0.28 0.26 0.24 0.24 0.24 0.23 0.22 0.20 0.17 0.14 0.14 0.16 0.22 0.32 0.39 0.43 0.47 0.49 0.46 0.36 0.29 0.24 0.22 0.20 0.18 0.16 0.14 0.13 0.12 0.12 0.13
0.62 0.60 0.55 0.46 0.41 0.49 0.51 0.48 0.45 0.44 0.38 0.32 0.27 0.26 0.25 0.25 0.25 0.27 0.30 0.31 0.27 0.23 0.19 0.17 0.18 0.26 0.35 0.45 0.54 0.64 0.68 0.58 0.46 0.38 0.33 0.29 0.25 0.22 0.20 0.18 0.17 0.15 0.14
0.66 0.69 0.64 0.59 0.54 0.48 0.49 0.52 0.48 0.43 0.40 0.37 0.33 0.29 0.25 0.24 0.23 0.24 0.25 0.28 0.30 0.30 0.27 0.24 0.23 0.23 0.30 0.41 0.54 0.68 0.79 0.75 0.62 0.51 0.45 0.40 0.36 0.31 0.26 0.24 0.22 0.20 0.19
0.75 0.74 0.75 0.74 0.74 0.67 0.56 0.52 0.50 0.47 0.43 0.45 0.47 0.43 0.37 0.32 0.29 0.27 0.26 0.26 0.25 0.26 0.26 0.23 0.22 0.22 0.24 0.30 0.41 0.55 0.67 0.78 0.79 0.72 0.62 0.54 0.49 0.44 0.41 0.39 0.35 0.33 0.31
0.97 0.92 0.86 0.90 0.91 0.85 0.75 0.70 0.67 0.63 0.59 0.58 0.59 0.51 0.44 0.42 0.39 0.34 0.33 0.34 0.32 0.31 0.29 0.27 0.24 0.22 0.20 0.22 0.27 0.36 0.47 0.61 0.75 0.82 0.83 0.78 0.70 0.62 0.57 0.55 0.54 0.50 0.47
1.10 1.06 1.03 1.01 1.01 1.02 1.00 0.96 0.93 0.87 0.81 0.81 0.81 0.78 0.62 0.47 0.37 0.33 0.34 0.36 0.35 0.35 0.33 0.31 0.28 0.26 0.23 0.21 0.21 0.23 0.30 0.42 0.59 0.75 0.84 0.86 0.84 0.81 0.79 0.78 0.76 0.72 0.66
1.26 1.17 1.15 1.18 1.13 1.09 1.05 1.05 1.04 1.02 0.96 0.93 0.93 0.98 0.84 0.58 0.40 0.32 0.29 0.30 0.33 0.35 0.36 0.38 0.40 0.38 0.33 0.30 0.27 0.25 0.25 0.27 0.40 0.60 0.80 0.89 0.91 0.92 0.96 1.02 1.05 1.04 0.95
1.44 1.38 1.31 1.30 1.27 1.22 1.12 1.10 1.09 1.05 1.03 0.98 0.95 0.88 0.81 0.66 0.61 0.46 0.32 0.30 0.32 0.33 0.36 0.40 0.44 0.47 0.47 0.46 0.44 0.40 0.34 0.29 0.34 0.48 0.70 0.91 1.05 1.12 1.15 1.17 1.20 1.22 1.17
1.53 1.48 1.43 1.40 1.33 1.27 1.22 1.23 1.20 1.18 1.11 1.06 1.01 0.95 0.93 0.80 0.67 0.65 0.48 0.34 0.35 0.36 0.38 0.42 0.45 0.48 0.50 0.49 0.47 0.47 0.48 0.43 0.45 0.53 0.69 0.91 1.10 1.28 1.38 1.41 1.40 1.40 1.37
1.63 1.54 1.45 1.40 1.34 1.30 1.28 1.28 1.31 1.28 1.23 1.18 1.13 1.07 1.07 1.01 0.86 0.82 0.73 0.51 0.43 0.39 0.38 0.40 0.42 0.45 0.48 0.50 0.49 0.53 0.52 0.53 0.56 0.66 0.81 0.97 1.09 1.23 1.40 1.53 1.57 1.53 1.49
1.44 1.43 1.43 1.39 1.35 1.29 1.28 1.30 1.32 1.30 1.25 1.21 1.15 1.11 1.11 1.07 0.98 0.96 0.92 0.72 0.58 0.47 0.43 0.43 0.43 0.44 0.45 0.48 0.51 0.60 0.58 0.61 0.65 0.72 0.86 1.00 1.06 1.10 1.22 1.39 1.59 1.70 1.76
1.37 1.40 1.40 1.40 1.42 1.41 1.36 1.35 1.35 1.32 1.30 1.22 1.11 1.05 1.02 0.97 0.97 0.99 0.98 0.98 0.90 0.69 0.56 0.49 0.44 0.45 0.48 0.53 0.62 0.72 0.68 0.79 0.82 0.86 0.94 1.04 1.07 1.06 1.08 1.15 1.30 1.47 1.59
1.23 1.27 1.28 1.30 1.32 1.34 1.33 1.33 1.32 1.28 1.28 1.25 1.18 1.11 0.99 0.88 0.87 0.90 0.93 1.00 1.11 1.01 0.76 0.58 0.56 0.58 0.63 0.68 0.78 0.78 0.74 0.90 0.96 0.96 1.01 1.05 1.06 1.02 0.99 1.01 1.06 1.13 1.21
1.06 1.11 1.13 1.14 1.16 1.18 1.21 1.24 1.22 1.18 1.16 1.13 1.12 1.12 1.07 0.98 0.94 0.95 0.99 1.06 1.14 1.20 1.04 0.72 0.63 0.66 0.75 0.83 0.94 0.88 0.83 0.96 0.94 0.93 0.95 0.95 0.90 0.87 0.85 0.86 0.89 0.96 1.02
0.94 0.95 0.97 0.99 0.99 1.02 1.06 1.10 1.06 1.05 1.07 1.06 1.05 1.08 1.10 1.07 1.08 1.06 1.10 1.16 1.23 1.30 1.30 1.00 0.82 0.78 0.82 0.83 0.85 0.81 0.78 0.80 0.79 0.87 0.84 0.80 0.76 0.73 0.73 0.74 0.76 0.80 0.84
0.85 0.86 0.87 0.89 0.86 0.85 0.89 0.93 0.95 0.95 0.95 0.96 0.99 1.05 1.08 1.09 1.14 1.14 1.18 1.22 1.24 1.24 1.25 1.12 0.92 0.82 0.77 0.73 0.71 0.70 0.67 0.65 0.63 0.73 0.72 0.69 0.67 0.65 0.65 0.66 0.67 0.69 0.74
0.75 0.77 0.78 0.80 0.82 0.80 0.81 0.83 0.83 0.84 0.85 0.86 0.86 0.90 0.91 0.97 1.03 1.04 1.08 1.13 1.14 1.14 1.14 1.06 0.88 0.74 0.67 0.65 0.69 0.68 0.62 0.58 0.54 0.57 0.59 0.56 0.55 0.54 0.55 0.57 0.60 0.61 0.60
0.57 0.62 0.67 0.70 0.70 0.73 0.77 0.80 0.82 0.81 0.80 0.79 0.79 0.81 0.83 0.88 0.93 0.99 1.04 1.05 1.06 1.08 1.09 1.07 0.98 0.82 0.70 0.64 0.66 0.66 0.62 0.54 0.49 0.46 0.53 0.52 0.51 0.49 0.46 0.44 0.42 0.43 0.45
0.42 0.45 0.51 0.59 0.64 0.66 0.70 0.75 0.77 0.80 0.80 0.80 0.82 0.87 0.91 1.01 1.03 0.99 0.96 0.94 0.94 0.99 1.01 1.01 0.93 0.81 0.70 0.64 0.63 0.58 0.57 0.55 0.53 0.47 0.48 0.46 0.44 0.43 0.42 0.42 0.41 0.38 0.39
0.34 0.37 0.43 0.47 0.54 0.60 0.76 0.75 0.71 0.72 0.80 0.84 0.86 0.86 0.89 0.99 0.97 0.96 0.90 0.86 0.87 0.93 0.95 0.90 0.79 0.67 0.54 0.47 0.47 0.53 0.58 0.64 0.63 0.46 0.45 0.45 0.42 0.44 0.40 0.38 0.42 0.40 0.38
0.36 0.39 0.41 0.45 0.51 0.65 0.80 0.77 0.81 0.74 0.77 0.82 0.84 0.82 0.78 0.75 0.77 0.69 0.75 0.80 0.80 0.80 0.75 0.69 0.64 0.53 0.46 0.42 0.51 0.61 0.63 0.61 0.51 0.38 0.44 0.52 0.47 0.44 0.37 0.37 0.43 0.40 0.39
0.50 0.55 0.59 0.63 0.66 0.75 0.81 0.73 0.70 0.65 0.68 0.71 0.69 0.67 0.63 0.58 0.56 0.56 0.59 0.65 0.58 0.54 0.54 0.49 0.46 0.43 0.43 0.46 0.55 0.65 0.68 0.70 0.61 0.53 0.54 0.59 0.50 0.44 0.38 0.38 0.44 0.41 0.42
0.78 0.76 0.73 0.69 0.66 0.66 0.67 0.61 0.57 0.52 0.53 0.53 0.51 0.50 0.49 0.47 0.54 0.61 0.55 0.51 0.47 0.46 0.50 0.52 0.53 0.52 0.56 0.59 0.61 0.67 0.76 0.84 0.76 0.59 0.50 0.48 0.44 0.41 0.41 0.42 0.44 0.49 0.46
0.70 0.68 0.67 0.64 0.58 0.52 0.47 0.42 0.40 0.37 0.37 0.35 0.33 0.34 0.40 0.41 0.50 0.56 0.48 0.46 0.43 0.38 0.39 0.43 0.45 0.44 0.42 0.46 0.56 0.55 0.64 0.85 0.76 0.57 0.36 0.40 0.44 0.50 0.63 0.46 0.40 0.43 0.49